Bel Air, Maryland - USA


Today's Data File


9/6/26
Time         Wind Dir   Wind Spd  Wind Gust     Hum In   Humidity    Temp In       Temp  Raw Barom Wind Chill  Press Alt Cloud Base   Dens Alt Temp Out R  DailyRain   24HrRain   RainRate
                    �        mph        mph          %          %         �F         �F         in         �F         ft         ft         ft      �F/hr         in         in      in/hr
12:00am           352          0          0         45         87       73.3       66.4      29.34       66.4        536        995       1162      -0.86       0.00       0.00      0.000
12:01am           352          0          0         45         87       73.3       66.4      29.34       66.4        536        995       1162      -0.84       0.00       0.00      0.000
12:02am           352          0          0         45         87       73.3       66.4      29.34       66.4        536        995       1162      -0.83       0.00       0.00      0.000
12:03am           352          0          0         46         87       73.3       66.4      29.34       66.4        536        995       1162      -0.82       0.00       0.00      0.000
12:04am           352          0          0         45         87       73.3       66.3      29.34       66.3        537        995       1157      -0.90       0.00       0.00      0.000
12:05am           352          0          0         44         87       73.3       66.2      29.34       66.2        536        995       1149      -0.99       0.00       0.00      0.000
12:06am           352          0          0         45         87       73.3       66.2      29.34       66.2        537        995       1150      -0.97       0.00       0.00      0.000
12:07am           352          0          0         45         87       73.3       66.2      29.34       66.2        536        995       1149      -0.95       0.00       0.00      0.000
12:08am           352          0          0         45         87       73.3       66.2      29.34       66.2        536        995       1149      -0.94       0.00       0.00      0.000
12:09am           352          0          0         44         88       73.3       66.1      29.34       66.1        536        913       1143      -1.02       0.00       0.00      0.000
12:10am           352          0          0         45         88       73.3       66.1      29.34       66.1        536        913       1143      -1.00       0.00       0.00      0.000
12:11am           352          0          0         44         88       73.3       66.0      29.34       66.0        536        913       1136      -1.09       0.00       0.00      0.000
12:12am           352          0          0         44         88       73.3       66.0      29.34       66.0        536        913       1136      -1.07       0.00       0.00      0.000
12:13am           352          0          0         45         88       73.3       66.0      29.35       66.0        536        913       1135      -1.05       0.00       0.00      0.000
12:14am           352          0          0         45         89       73.3       65.9      29.35       65.9        536        832       1129      -1.13       0.00       0.00      0.000
12:15am           352          0          0         45         89       73.3       65.9      29.35       65.9        536        832       1129      -1.11       0.00       0.00      0.000
12:16am           352          0          0         44         88       73.3       65.9      29.35       65.9        536        912       1129      -1.10       0.00       0.00      0.000
12:17am           352          0          0         44         88       73.3       65.8      29.35       65.8        536        912       1122      -1.18       0.00       0.00      0.000
12:18am           352          0          0         44         88       73.1       65.8      29.35       65.8        536        912       1122      -1.16       0.00       0.00      0.000
12:19am           352          0          0         44         88       73.1       65.8      29.35       65.8        536        912       1122      -1.14       0.00       0.00      0.000
12:20am           352          0          0         45         88       73.1       65.7      29.35       65.7        536        912       1116      -1.22       0.00       0.00      0.000
12:21am           352          0          0         44         89       73.1       65.7      29.35       65.7        535        831       1115      -1.20       0.00       0.00      0.000
12:22am           352          0          0         44         89       73.1       65.7      29.35       65.7        536        831       1116      -1.18       0.00       0.00      0.000
12:23am           352          0          0         45         89       73.1       65.6      29.35       65.6        536        831       1109      -1.26       0.00       0.00      0.000
12:24am           352          0          0         44         89       73.1       65.6      29.35       65.6        536        831       1109      -1.23       0.00       0.00      0.000
12:25am           352          0          0         44         89       73.1       65.5      29.35       65.5        536        831       1103      -1.31       0.00       0.00      0.000
12:26am           352          0          0         44         89       73.1       65.5      29.35       65.5        536        831       1103      -1.29       0.00       0.00      0.000
12:27am           352          0          0         44         89       73.1       65.5      29.35       65.5        536        831       1103      -1.27       0.00       0.00      0.000
12:28am           352          0          0         44         89       73.1       65.5      29.35       65.5        536        831       1103      -1.25       0.00       0.00      0.000
12:29am           352          0          0         45         89       73.1       65.4      29.34       65.4        536        830       1098      -1.33       0.00       0.00      0.000
12:30am           352          0          0         45         89       73.1       65.4      29.34       65.4        536        830       1098      -1.31       0.00       0.00      0.000
12:31am           352          0          0         45         89       73.1       65.4      29.34       65.4        537        830       1099      -1.29       0.00       0.00      0.000
12:32am           352          0          0         44         89       73.1       65.4      29.34       65.4        536        830       1098      -1.27       0.00       0.00      0.000
12:33am           352          0          0         44         89       73.1       65.3      29.34       65.3        536        830       1091      -1.34       0.00       0.00      0.000
12:34am           352          0          0         45         89       73.1       65.4      29.34       65.4        536        830       1098      -1.22       0.00       0.00      0.000
12:35am           352          0          0         44         90       73.1       65.3      29.34       65.3        536        751       1091      -1.30       0.00       0.00      0.000
12:36am           352          0          0         44         90       73.1       65.3      29.35       65.3        536        751       1090      -1.28       0.00       0.00      0.000
12:37am           352          0          0         44         90       73.1       65.3      29.35       65.3        536        751       1090      -1.26       0.00       0.00      0.000
12:38am           352          0          0         45         90       73.1       65.3      29.35       65.3        536        751       1090      -1.24       0.00       0.00      0.000
12:39am           352          0          0         44         90       73.1       65.2      29.35       65.2        536        751       1084      -1.32       0.00       0.00      0.000
12:40am           352          0          0         44         90       73.1       65.3      29.35       65.3        536        751       1090      -1.20       0.00       0.00      0.000
12:41am           352          0          0         45         90       73.3       65.2      29.35       65.2        536        751       1084      -1.27       0.00       0.00      0.000
12:42am           352          0          0         44         90       73.3       65.2      29.35       65.2        536        751       1084      -1.25       0.00       0.00      0.000
12:43am           352          0          0         44         90       73.3       65.2      29.35       65.2        535        751       1083      -1.23       0.00       0.00      0.000
12:44am           352          0          0         44         91       73.3       65.2      29.35       65.2        536        672       1084      -1.21       0.00       0.00      0.000
12:45am           352          0          0         45         91       73.3       65.1      29.35       65.1        535        672       1076      -1.29       0.00       0.00      0.000
12:46am           352          0          0         45         91       73.3       65.1      29.35       65.1        535        672       1076      -1.27       0.00       0.00      0.000
12:47am           352          0          0         45         91       73.3       65.1      29.35       65.1        535        672       1076      -1.25       0.00       0.00      0.000
12:48am           352          0          0         45         91       73.3       65.0      29.35       65.0        535        672       1070      -1.33       0.00       0.00      0.000
12:49am           352          0          0         44         91       73.3       65.0      29.35       65.0        535        672       1070      -1.30       0.00       0.00      0.000
12:50am           352          0          0         44         91       73.3       65.0      29.35       65.0        535        672       1070      -1.28       0.00       0.00      0.000
12:51am           352          0          0         45         91       73.3       65.0      29.35       65.0        536        672       1071      -1.26       0.00       0.00      0.000
12:52am           352          0          0         44         91       73.3       64.9      29.35       64.9        536        671       1064      -1.34       0.00       0.00      0.000
12:53am           352          0          0         45         92       73.3       64.9      29.35       64.9        536        594       1064      -1.32       0.00       0.00      0.000
12:54am           352          0          0         45         91       73.3       64.8      29.35       64.8        536        671       1058      -1.40       0.00       0.00      0.000
12:55am           352          0          0         44         92       73.3       64.8      29.35       64.8        535        594       1057      -1.37       0.00       0.00      0.000
12:56am           352          0          0         44         91       73.3       64.8      29.35       64.8        536        671       1058      -1.35       0.00       0.00      0.000
12:57am           352          0          0         44         91       73.5       64.8      29.35       64.8        536        671       1058      -1.33       0.00       0.00      0.000
12:58am           352          0          0         45         91       73.5       64.7      29.35       64.7        536        671       1051      -1.40       0.00       0.00      0.000
12:59am           352          0          0         44         91       73.5       64.7      29.35       64.7        536        671       1051      -1.38       0.00       0.00      0.000
1:00am            352          0          0         45         91       73.5       64.6      29.35       64.6        536        670       1045      -1.46       0.00       0.00      0.000
1:01am            352          0          0         45         91       73.5       64.5      29.35       64.5        536        670       1038      -1.53       0.00       0.00      0.000
1:02am            352          0          0         44         91       73.5       64.5      29.35       64.5        536        670       1038      -1.51       0.00       0.00      0.000
1:03am            352          0          0         45         91       73.5       64.5      29.35       64.5        536        670       1038      -1.48       0.00       0.00      0.000
1:04am            352          0          0         45         91       73.5       64.5      29.35       64.5        536        670       1038      -1.46       0.00       0.00      0.000
1:05am            352          0          0         45         91       73.5       64.5      29.34       64.5        536        670       1040      -1.43       0.00       0.00      0.000
1:06am            352          0          0         44         91       73.5       64.5      29.34       64.5        536        670       1040      -1.41       0.00       0.00      0.000
1:07am            352          0          0         45         91       73.5       64.4      29.34       64.4        536        670       1033      -1.49       0.00       0.00      0.000
1:08am            352          0          0         45         91       73.3       64.4      29.34       64.4        536        670       1033      -1.46       0.00       0.00      0.000
1:09am            352          0          0         45         91       73.3       64.4      29.34       64.4        536        670       1033      -1.44       0.00       0.00      0.000
1:10am            352          0          0         44         91       73.3       64.5      29.34       64.5        536        670       1040      -1.32       0.00       0.00      0.000
1:11am            352          0          0         44         90       73.3       64.5      29.34       64.5        537        748       1041      -1.29       0.00       0.00      0.000
1:12am            352          0          0         44         90       73.3       64.5      29.34       64.5        537        748       1041      -1.27       0.00       0.00      0.000
1:13am            352          0          0         44         90       73.3       64.5      29.34       64.5        538        748       1042      -1.25       0.00       0.00      0.000
1:14am            352          0          0         45         90       73.3       64.5      29.34       64.5        538        748       1042      -1.23       0.00       0.00      0.000
1:15am            352          0          0         44         90       73.3       64.5      29.34       64.5        539        748       1043      -1.21       0.00       0.00      0.000
1:16am            352          0          0         44         90       73.3       64.5      29.34       64.5        539        748       1043      -1.19       0.00       0.00      0.000
1:17am            352          0          0         44         90       73.3       64.6      29.34       64.6        541        749       1052      -1.07       0.00       0.00      0.000
1:18am            352          0          0         45         90       73.1       64.5      29.34       64.5        540        748       1044      -1.15       0.00       0.00      0.000
1:19am            352          0          0         44         90       73.1       64.5      29.34       64.5        541        748       1045      -1.13       0.00       0.00      0.000
1:20am            352          0          0         45         90       73.1       64.5      29.34       64.5        542        748       1046      -1.12       0.00       0.00      0.000
1:21am            352          0          0         45         90       73.1       64.6      29.34       64.6        543        749       1054      -1.00       0.00       0.00      0.000
1:22am            352          0          0         44         90       73.1       64.6      29.33       64.6        546        749       1057      -0.98       0.00       0.00      0.000
1:23am            352          0          0         45         90       73.1       64.6      29.33       64.6        546        749       1057      -0.97       0.00       0.00      0.000
1:24am            352          0          0         44         90       73.1       64.6      29.33       64.6        547        749       1058      -0.95       0.00       0.00      0.000
1:25am            352          0          0         44         90       73.1       64.6      29.33       64.6        548        749       1060      -0.93       0.00       0.00      0.000
1:26am            352          0          0         45         90       73.3       64.5      29.33       64.5        548        748       1053      -1.02       0.00       0.00      0.000
1:27am            352          0          0         45         90       73.3       64.5      29.33       64.5        548        748       1053      -1.00       0.00       0.00      0.000
1:28am            352          0          0         44         90       73.3       64.5      29.33       64.5        548        748       1053      -0.98       0.00       0.00      0.000
1:29am            352          0          0         44         90       73.3       64.5      29.33       64.5        548        748       1053      -0.97       0.00       0.00      0.000
1:30am            352          0          0         44         90       73.3       64.5      29.33       64.5        547        748       1052      -0.95       0.00       0.00      0.000
1:31am            352          0          0         44         90       73.3       64.5      29.33       64.5        548        748       1053      -0.94       0.00       0.00      0.000
1:32am            352          0          0         44         91       73.3       64.5      29.33       64.5        548        670       1053      -0.92       0.00       0.00      0.000
1:33am            352          0          0         45         91       73.3       64.5      29.33       64.5        548        670       1053      -0.90       0.00       0.00      0.000
1:34am            352          0          0         44         91       73.3       64.5      29.33       64.5        548        670       1053      -0.89       0.00       0.00      0.000
1:35am            352          0          0         44         91       73.3       64.5      29.33       64.5        548        670       1053      -0.87       0.00       0.00      0.000
1:36am            352          0          0         45         91       73.3       64.5      29.33       64.5        548        670       1053      -0.86       0.00       0.00      0.000
1:37am            352          0          0         44         91       73.3       64.4      29.33       64.4        547        670       1046      -0.94       0.00       0.00      0.000
1:38am            352          0          0         44         92       73.3       64.4      29.33       64.4        548        593       1047      -0.93       0.00       0.00      0.000
1:39am            352          0          0         44         92       73.3       64.4      29.33       64.4        548        593       1047      -0.91       0.00       0.00      0.000
1:40am            352          0          0         44         91       73.3       64.3      29.33       64.3        548        670       1041      -1.00       0.00       0.00      0.000
1:41am            352          0          0         44         91       73.3       64.3      29.33       64.3        548        670       1041      -0.98       0.00       0.00      0.000
1:42am            352          0          0         45         91       73.3       64.2      29.33       64.2        548        669       1035      -1.06       0.00       0.00      0.000
1:43am            352          0          0         44         91       73.3       64.2      29.33       64.2        548        669       1035      -1.04       0.00       0.00      0.000
1:44am            352          0          0         44         91       73.3       64.2      29.33       64.2        549        669       1036      -1.03       0.00       0.00      0.000
1:45am            352          0          0         44         91       73.3       64.2      29.33       64.2        548        669       1035      -1.01       0.00       0.00      0.000
1:46am            352          0          0         44         91       73.5       64.1      29.33       64.1        548        669       1028      -1.09       0.00       0.00      0.000
1:47am            352          0          0         44         91       73.5       64.2      29.33       64.2        548        669       1035      -0.97       0.00       0.00      0.000
1:48am            352          0          0         44         91       73.5       64.1      29.33       64.1        548        669       1028      -1.06       0.00       0.00      0.000
1:49am            352          0          0         44         91       73.5       64.1      29.33       64.1        548        669       1027      -1.04       0.00       0.00      0.000
1:50am            352          0          0         44         91       73.5       64.1      29.33       64.1        548        669       1027      -1.02       0.00       0.00      0.000
1:51am            352          0          0         44         91       73.5       64.1      29.33       64.1        548        669       1027      -1.00       0.00       0.00      0.000
1:52am            352          0          0         44         91       73.5       64.1      29.33       64.1        548        669       1027      -0.99       0.00       0.00      0.000
1:53am            352          0          0         44         91       73.5       64.1      29.33       64.1        548        669       1027      -0.97       0.00       0.00      0.000
1:54am            352          0          0         44         91       73.5       64.1      29.33       64.1        548        669       1028      -0.96       0.00       0.00      0.000
1:55am            352          0          0         44         91       73.5       64.1      29.33       64.1        548        669       1028      -0.94       0.00       0.00      0.000
1:56am            352          0          0         44         91       73.5       64.1      29.33       64.1        548        669       1028      -0.93       0.00       0.00      0.000
1:57am            352          0          0         44         91       73.5       64.1      29.33       64.1        549        669       1030      -0.91       0.00       0.00      0.000
1:58am            352          0          0         44         91       73.5       64.0      29.33       64.0        549        669       1023      -0.99       0.00       0.00      0.000
1:59am            352          0          0         45         91       73.5       64.0      29.33       64.0        549        669       1023      -0.98       0.00       0.00      0.000
2:00am            352          0          0         44         91       73.5       64.1      29.33       64.1        549        669       1030      -0.86       0.00       0.00      0.000
2:01am            352          0          0         44         91       73.6       64.0      29.33       64.0        549        669       1023      -0.95       0.00       0.00      0.000
2:02am            352          0          0         44         91       73.6       64.1      29.33       64.1        549        669       1030      -0.84       0.00       0.00      0.000
2:03am            352          0          0         45         91       73.6       64.1      29.33       64.1        549        669       1030      -0.82       0.00       0.00      0.000
2:04am            352          0          0         44         91       73.6       64.1      29.33       64.1        549        669       1030      -0.81       0.00       0.00      0.000
2:05am            352          0          0         44         91       73.6       64.1      29.33       64.1        549        669       1030      -0.79       0.00       0.00      0.000
2:06am            352          0          0         44         91       73.6       64.1      29.33       64.1        549        669       1030      -0.78       0.00       0.00      0.000
2:07am            352          0          0         44         91       73.6       64.1      29.33       64.1        549        669       1030      -0.77       0.00       0.00      0.000
2:08am            352          0          0         44         91       73.6       64.1      29.33       64.1        549        669       1030      -0.75       0.00       0.00      0.000
2:09am            352          0          0         44         91       73.6       64.1      29.33       64.1        549        669       1030      -0.74       0.00       0.00      0.000
2:10am            352          0          0         44         91       73.6       64.1      29.33       64.1        549        669       1030      -0.73       0.00       0.00      0.000
2:11am            352          0          0         44         91       73.5       64.0      29.33       64.0        550        669       1024      -0.81       0.00       0.00      0.000
2:12am            352          0          0         44         91       73.5       64.0      29.33       64.0        550        669       1024      -0.80       0.00       0.00      0.000
2:13am            352          0          0         44         91       73.5       64.0      29.33       64.0        549        669       1023      -0.78       0.00       0.00      0.000
2:14am            352          0          0         44         91       73.5       63.9      29.33       63.9        549        668       1017      -0.87       0.00       0.00      0.000
2:15am            352          0          0         44         91       73.5       63.9      29.33       63.9        553        668       1021      -0.86       0.00       0.00      0.000
2:16am            352          0          0         44         91       73.5       63.9      29.33       63.9        553        668       1021      -0.84       0.00       0.00      0.000
2:17am            352          0          0         44         90       73.5       63.8      29.33       63.8        553        746       1015      -0.93       0.00       0.00      0.000
2:18am            352          0          0         44         90       73.5       63.9      29.32       63.9        555        746       1023      -0.81       0.00       0.00      0.000
2:19am            352          0          0         44         90       73.5       63.9      29.32       63.9        555        746       1023      -0.80       0.00       0.00      0.000
2:20am            352          0          0         46         91       73.5       63.8      29.33       63.8        554        668       1016      -0.89       0.00       0.00      0.000
2:21am            352          0          0         45         91       73.5       63.8      29.33       63.8        553        668       1015      -0.87       0.00       0.00      0.000
2:22am            352          0          0         44         91       73.5       63.8      29.33       63.8        553        668       1015      -0.86       0.00       0.00      0.000
2:23am            352          0          0         44         91       73.5       63.8      29.33       63.8        552        668       1014      -0.84       0.00       0.00      0.000
2:24am            352          0          0         44         91       73.5       63.8      29.33       63.8        552        668       1014      -0.83       0.00       0.00      0.000
2:25am            352          0          0         45         91       73.5       63.8      29.33       63.8        552        668       1014      -0.82       0.00       0.00      0.000
2:26am            352          0          0         44         91       73.5       63.8      29.33       63.8        552        668       1014      -0.80       0.00       0.00      0.000
2:27am            352          0          0         44         91       73.5       63.8      29.33       63.8        552        668       1014      -0.79       0.00       0.00      0.000
2:28am            352          0          0         44         92       73.5       63.8      29.33       63.8        551        591       1012      -0.78       0.00       0.00      0.000
2:29am            352          0          0         44         92       73.5       63.8      29.33       63.8        551        591       1012      -0.76       0.00       0.00      0.000
2:30am            352          0          0         44         92       73.5       63.8      29.33       63.8        550        591       1011      -0.75       0.00       0.00      0.000
2:31am            352          0          0         45         91       73.5       63.7      29.33       63.7        550        668       1005      -0.84       0.00       0.00      0.000
2:32am            352          0          0         44         91       73.5       63.7      29.33       63.7        551        668       1006      -0.82       0.00       0.00      0.000
2:33am            352          0          0         44         91       73.5       63.6      29.33       63.6        551        668        999      -0.91       0.00       0.00      0.000
2:34am            352          0          0         44         91       73.5       63.6      29.33       63.6        550        668        998      -0.89       0.00       0.00      0.000
2:35am            352          0          0         44         91       73.5       63.6      29.33       63.6        549        668        997      -0.88       0.00       0.00      0.000
2:36am            352          0          0         44         91       73.5       63.5      29.33       63.5        549        667        991      -0.96       0.00       0.00      0.000
2:37am            352          0          0         44         91       73.5       63.5      29.33       63.5        549        667        991      -0.95       0.00       0.00      0.000
2:38am            352          0          0         44         91       73.5       63.5      29.33       63.5        549        667        991      -0.93       0.00       0.00      0.000
2:39am            352          0          1         44         91       73.6       63.5      29.33       63.5        549        667        991      -0.92       0.00       0.00      0.000
2:40am            352          0          1         44         91       73.6       63.5      29.33       63.5        549        667        991      -0.90       0.00       0.00      0.000
2:41am            352          1          1         45         91       73.6       63.5      29.33       63.5        548        667        990      -0.89       0.00       0.00      0.000
2:42am            352          0          1         45         91       73.6       63.5      29.33       63.5        549        667        991      -0.87       0.00       0.00      0.000
2:43am            352          0          1         45         92       73.6       63.5      29.33       63.5        549        590        991      -0.86       0.00       0.00      0.000
2:44am            352          0          1         44         91       73.6       63.5      29.33       63.5        551        667        993      -0.84       0.00       0.00      0.000
2:45am            352          0          1         45         91       73.6       63.5      29.33       63.5        551        667        993      -0.83       0.00       0.00      0.000
2:46am            352          0          1         45         91       73.6       63.4      29.33       63.4        553        667        989      -0.91       0.00       0.00      0.000
2:47am            352          0          1         44         92       73.6       63.4      29.33       63.4        554        590        990      -0.90       0.00       0.00      0.000
2:48am            352          0          1         44         92       73.6       63.4      29.32       63.4        555        590        991      -0.89       0.00       0.00      0.000
2:49am            352          0          1         44         92       73.6       63.4      29.32       63.4        556        590        992      -0.87       0.00       0.00      0.000
2:50am            352          0          1         44         92       73.6       63.4      29.32       63.4        555        590        991      -0.86       0.00       0.00      0.000
2:51am            352          0          1         45         92       73.6       63.4      29.33       63.4        554        590        990      -0.84       0.00       0.00      0.000
2:52am            352          0          1         44         92       73.6       63.4      29.33       63.4        553        590        989      -0.83       0.00       0.00      0.000
2:53am            352          0          1         44         92       73.6       63.4      29.33       63.4        551        590        986      -0.82       0.00       0.00      0.000
2:54am            352          0          1         44         92       73.6       63.4      29.33       63.4        551        590        986      -0.80       0.00       0.00      0.000
2:55am            352          0          1         44         92       73.6       63.4      29.33       63.4        550        590        985      -0.79       0.00       0.00      0.000
2:56am            352          0          1         45         92       73.6       63.4      29.33       63.4        550        590        985      -0.78       0.00       0.00      0.000
2:57am            352          0          1         44         92       73.8       63.3      29.33       63.3        551        590        980      -0.86       0.00       0.00      0.000
2:58am            352          0          1         44         92       73.8       63.4      29.33       63.4        551        590        986      -0.75       0.00       0.00      0.000
2:59am            352          0          1         44         92       73.8       63.4      29.33       63.4        551        590        986      -0.74       0.00       0.00      0.000
3:00am            352          0          1         44         92       73.8       63.3      29.33       63.3        551        590        980      -0.82       0.00       0.00      0.000
3:01am            352          0          0         44         92       73.8       63.3      29.33       63.3        551        590        980      -0.81       0.00       0.00      0.000
3:02am            352          0          0         44         92       73.8       63.3      29.33       63.3        553        590        982      -0.80       0.00       0.00      0.000
3:03am            352          0          0         44         92       73.8       63.3      29.33       63.3        553        590        982      -0.78       0.00       0.00      0.000
3:04am            352          0          0         44         93       73.8       63.3      29.33       63.3        554        514        983      -0.77       0.00       0.00      0.000
3:05am            352          0          0         44         93       73.8       63.3      29.33       63.3        554        514        983      -0.76       0.00       0.00      0.000
3:06am            352          0          0         45         93       73.8       63.4      29.33       63.4        554        514        990      -0.64       0.00       0.00      0.000
3:07am            352          0          0         44         93       73.8       63.3      29.33       63.3        553        514        982      -0.73       0.00       0.00      0.000
3:08am            352          0          0         44         93       73.8       63.3      29.33       63.3        553        514        982      -0.72       0.00       0.00      0.000
3:09am            352          0          0         44         93       73.8       63.3      29.33       63.3        551        514        980      -0.71       0.00       0.00      0.000
3:10am            352          0          0         45         93       73.8       63.2      29.33       63.2        550        513        972      -0.80       0.00       0.00      0.000
3:11am            352          0          0         44         93       73.8       63.2      29.33       63.2        550        513        972      -0.78       0.00       0.00      0.000
3:12am            352          0          0         44         93       73.8       63.2      29.33       63.2        549        513        971      -0.77       0.00       0.00      0.000
3:13am            352          0          0         44         93       73.8       63.2      29.33       63.2        549        513        971      -0.76       0.00       0.00      0.000
3:14am            352          0          0         44         93       73.6       63.1      29.33       63.1        549        513        965      -0.84       0.00       0.00      0.000
3:15am            352          0          0         44         93       73.6       63.1      29.33       63.1        549        513        965      -0.83       0.00       0.00      0.000
3:16am            352          0          0         44         93       73.6       63.1      29.33       63.1        549        513        965      -0.82       0.00       0.00      0.000
3:17am            352          0          0         44         93       73.6       63.0      29.33       63.0        549        513        958      -0.90       0.00       0.00      0.000
3:18am            352          0          0         44         93       73.6       62.9      29.33       62.9        550        513        953      -0.99       0.00       0.00      0.000
3:19am            352          0          0         44         93       73.6       62.9      29.33       62.9        553        513        956      -0.97       0.00       0.00      0.000
3:20am            352          0          0         44         93       73.6       62.9      29.33       62.9        554        513        957      -0.96       0.00       0.00      0.000
3:21am            352          0          1         44         93       73.6       62.8      29.32       62.8        556        512        953      -1.04       0.00       0.00      0.000
3:22am            352          1          1         44         93       73.6       62.8      29.32       62.8        557        512        954      -1.02       0.00       0.00      0.000
3:23am            352          0          1         44         93       73.6       62.8      29.32       62.8        555        512        952      -1.00       0.00       0.00      0.000
3:24am            352          0          1         44         93       73.6       62.8      29.32       62.8        556        512        953      -0.99       0.00       0.00      0.000
3:25am            352          0          1         44         93       73.6       62.8      29.32       62.8        555        512        952      -0.97       0.00       0.00      0.000
3:26am            352          0          1         44         93       73.6       62.8      29.33       62.8        554        512        951      -0.95       0.00       0.00      0.000
3:27am            352          0          1         44         93       73.6       62.8      29.33       62.8        554        512        951      -0.94       0.00       0.00      0.000
3:28am            352          0          1         44         93       73.6       62.8      29.33       62.8        553        512        950      -0.92       0.00       0.00      0.000
3:29am            352          0          1         44         93       73.6       62.8      29.33       62.8        553        512        950      -0.91       0.00       0.00      0.000
3:30am            352          0          1         44         93       73.6       62.8      29.33       62.8        553        512        950      -0.89       0.00       0.00      0.000
3:31am            352          0          0         44         93       73.6       62.8      29.33       62.8        551        512        948      -0.88       0.00       0.00      0.000
3:32am            352          0          0         44         93       73.6       62.8      29.33       62.8        553        512        950      -0.86       0.00       0.00      0.000
3:33am            352          0          0         44         93       73.6       62.8      29.33       62.8        554        512        951      -0.85       0.00       0.00      0.000
3:34am            352          0          0         44         93       73.6       62.8      29.33       62.8        554        512        951      -0.83       0.00       0.00      0.000
3:35am            352          0          0         44         93       73.6       62.7      29.32       62.7        556        512        947      -0.92       0.00       0.00      0.000
3:36am            352          0          0         44         93       73.6       62.7      29.32       62.7        557        512        948      -0.90       0.00       0.00      0.000
3:37am            352          0          0         44         93       73.8       62.7      29.32       62.7        557        512        948      -0.89       0.00       0.00      0.000
3:38am            352          0          0         44         93       73.8       62.7      29.32       62.7        559        512        950      -0.87       0.00       0.00      0.000
3:39am            352          0          0         44         93       73.8       62.7      29.32       62.7        559        512        950      -0.86       0.00       0.00      0.000
3:40am            352          0          0         44         93       73.8       62.6      29.32       62.6        560        512        945      -0.94       0.00       0.00      0.000
3:41am            352          0          0         44         93       73.8       62.6      29.32       62.6        560        512        945      -0.93       0.00       0.00      0.000
3:42am            352          0          0         44         93       73.8       62.6      29.32       62.6        559        512        944      -0.91       0.00       0.00      0.000
3:43am            352          0          0         44         93       73.8       62.6      29.32       62.6        558        512        942      -0.90       0.00       0.00      0.000
3:44am            352          0          0         44         93       73.8       62.6      29.32       62.6        557        512        941      -0.88       0.00       0.00      0.000
3:45am            352          0          0         44         93       73.8       62.6      29.32       62.6        555        512        939      -0.87       0.00       0.00      0.000
3:46am            352          0          0         44         93       73.8       62.6      29.32       62.6        555        512        939      -0.85       0.00       0.00      0.000
3:47am            352          0          0         44         93       73.8       62.5      29.32       62.5        556        512        934      -0.94       0.00       0.00      0.000
3:48am            352          0          0         44         93       73.8       62.5      29.32       62.5        557        512        935      -0.92       0.00       0.00      0.000
3:49am            352          0          0         44         93       73.8       62.5      29.32       62.5        557        512        935      -0.91       0.00       0.00      0.000
3:50am            352          0          0         44         93       73.8       62.5      29.32       62.5        558        512        936      -0.89       0.00       0.00      0.000
3:51am            352          0          0         44         93       73.8       62.4      29.32       62.4        558        512        929      -0.97       0.00       0.00      0.000
3:52am            352          0          0         45         93       73.8       62.5      29.32       62.5        558        512        936      -0.86       0.00       0.00      0.000
3:53am            352          0          0         44         93       73.8       62.4      29.32       62.4        557        512        928      -0.94       0.00       0.00      0.000
3:54am            352          0          0         45         93       73.8       62.4      29.32       62.4        557        512        928      -0.93       0.00       0.00      0.000
3:55am            352          0          0         44         93       73.8       62.4      29.32       62.4        555        512        926      -0.91       0.00       0.00      0.000
3:56am            352          0          0         44         93       73.8       62.4      29.33       62.4        553        512        924      -0.90       0.00       0.00      0.000
3:57am            352          0          0         44         93       74.0       62.5      29.33       62.5        552        512        929      -0.78       0.00       0.00      0.000
3:58am            352          0          0         44         93       74.0       62.4      29.33       62.4        551        512        922      -0.87       0.00       0.00      0.000
3:59am            352          0          0         44         93       74.0       62.5      29.33       62.5        550        512        927      -0.76       0.00       0.00      0.000
4:00am            352          0          0         44         93       74.0       62.4      29.33       62.4        550        512        920      -0.84       0.00       0.00      0.000
4:01am            352          0          0         44         93       74.0       62.4      29.33       62.4        550        512        920      -0.83       0.00       0.00      0.000
4:02am            352          0          0         44         93       74.0       62.5      29.33       62.5        551        512        928      -0.72       0.00       0.00      0.000
4:03am            352          0          0         44         93       74.0       62.5      29.33       62.5        550        512        927      -0.71       0.00       0.00      0.000
4:04am            352          0          0         44         93       74.0       62.4      29.33       62.4        550        512        920      -0.79       0.00       0.00      0.000
4:05am            352          0          0         44         93       74.0       62.4      29.33       62.4        550        512        920      -0.78       0.00       0.00      0.000
4:06am            352          0          0         45         93       74.0       62.4      29.33       62.4        550        512        920      -0.77       0.00       0.00      0.000
4:07am            352          0          0         44         93       74.0       62.4      29.33       62.4        550        512        920      -0.75       0.00       0.00      0.000
4:08am            352          0          0         44         93       74.0       62.3      29.33       62.3        550        511        914      -0.84       0.00       0.00      0.000
4:09am            352          0          0         44         93       74.0       62.3      29.33       62.3        548        511        912      -0.83       0.00       0.00      0.000
4:10am            352          0          0         44         93       74.0       62.3      29.33       62.3        548        511        912      -0.81       0.00       0.00      0.000
4:11am            352          0          0         44         93       74.0       62.3      29.33       62.3        548        511        912      -0.80       0.00       0.00      0.000
4:12am            352          0          0         44         93       74.0       62.3      29.33       62.3        548        511        912      -0.79       0.00       0.00      0.000
4:13am            352          0          0         46         93       74.0       62.3      29.33       62.3        548        511        910      -0.77       0.00       0.00      0.000
4:14am            352          0          0         44         93       74.0       62.2      29.33       62.2        548        511        904      -0.86       0.00       0.00      0.000
4:15am            352          0          0         45         93       74.0       62.3      29.33       62.3        548        511        910      -0.75       0.00       0.00      0.000
4:16am            352          0          0         44         93       74.2       62.2      29.33       62.2        547        511        903      -0.83       0.00       0.00      0.000
4:17am            352          0          0         44         93       74.2       62.3      29.33       62.3        547        511        909      -0.72       0.00       0.00      0.000
4:18am            352          0          0         45         93       74.2       62.3      29.33       62.3        547        511        909      -0.71       0.00       0.00      0.000
4:19am            352          0          0         44         93       74.2       62.3      29.33       62.3        547        511        909      -0.70       0.00       0.00      0.000
4:20am            352          0          0         45         93       74.2       62.3      29.33       62.3        547        511        909      -0.68       0.00       0.00      0.000
4:21am            352          0          0         45         93       74.2       62.3      29.33       62.3        546        511        908      -0.67       0.00       0.00      0.000
4:22am            352          0          0         45         93       74.2       62.3      29.33       62.3        546        511        908      -0.66       0.00       0.00      0.000
4:23am            352          0          0         44         93       74.2       62.3      29.33       62.3        546        511        908      -0.65       0.00       0.00      0.000
4:24am            352          0          0         44         93       74.2       62.3      29.33       62.3        546        511        908      -0.64       0.00       0.00      0.000
4:25am            352          0          0         45         93       74.0       62.3      29.33       62.3        546        511        908      -0.63       0.00       0.00      0.000
4:26am            352          0          0         45         93       74.0       62.3      29.33       62.3        546        511        908      -0.62       0.00       0.00      0.000
4:27am            352          0          0         44         93       74.0       62.3      29.33       62.3        546        511        908      -0.61       0.00       0.00      0.000
4:28am            352          0          0         45         93       74.0       62.4      29.33       62.4        546        512        915      -0.50       0.00       0.00      0.000
4:29am            352          0          0         44         93       74.0       62.3      29.33       62.3        546        511        908      -0.59       0.00       0.00      0.000
4:30am            352          0          0         44         93       74.0       62.3      29.33       62.3        546        511        908      -0.58       0.00       0.00      0.000
4:31am            352          0          0         45         93       74.0       62.3      29.34       62.3        545        511        907      -0.57       0.00       0.00      0.000
4:32am            352          0          0         44         93       74.0       62.3      29.34       62.3        544        511        906      -0.56       0.00       0.00      0.000
4:33am            352          0          0         45         93       74.0       62.4      29.34       62.4        544        512        912      -0.46       0.00       0.00      0.000
4:34am            352          0          0         44         93       74.0       62.4      29.34       62.4        544        512        912      -0.45       0.00       0.00      0.000
4:35am            352          0          0         44         93       74.0       62.4      29.34       62.4        545        512        914      -0.44       0.00       0.00      0.000
4:36am            352          0          0         45         93       74.0       62.4      29.33       62.4        546        512        915      -0.43       0.00       0.00      0.000
4:37am            352          0          0         44         93       74.0       62.4      29.33       62.4        546        512        915      -0.43       0.00       0.00      0.000
4:38am            352          0          0         44         93       74.0       62.4      29.33       62.4        546        512        915      -0.42       0.00       0.00      0.000
4:39am            352          0          0         45         93       74.0       62.4      29.33       62.4        547        512        916      -0.41       0.00       0.00      0.000
4:40am            352          0          0         44         93       74.0       62.4      29.33       62.4        547        512        916      -0.41       0.00       0.00      0.000
4:41am            352          0          0         45         93       74.0       62.4      29.33       62.4        546        512        915      -0.40       0.00       0.00      0.000
4:42am            352          0          0         45         93       74.0       62.3      29.33       62.3        546        511        908      -0.49       0.00       0.00      0.000
4:43am            352          0          0         45         93       74.0       62.3      29.33       62.3        546        511        908      -0.48       0.00       0.00      0.000
4:44am            352          0          0         45         93       74.0       62.3      29.33       62.3        546        511        908      -0.48       0.00       0.00      0.000
4:45am            352          0          0         45         93       74.0       62.3      29.33       62.3        546        511        908      -0.47       0.00       0.00      0.000
4:46am            352          0          0         45         93       74.0       62.4      29.33       62.4        547        512        916      -0.36       0.00       0.00      0.000
4:47am            352          0          0         45         93       74.0       62.3      29.33       62.3        547        511        909      -0.45       0.00       0.00      0.000
4:48am            352          0          0         44         93       74.0       62.4      29.33       62.4        547        512        916      -0.35       0.00       0.00      0.000
4:49am            352          0          0         45         93       74.0       62.4      29.33       62.4        547        512        916      -0.34       0.00       0.00      0.000
4:50am            352          0          0         45         93       74.0       62.4      29.33       62.4        546        512        915      -0.34       0.00       0.00      0.000
4:51am            352          0          0         44         93       74.0       62.4      29.34       62.4        545        512        914      -0.33       0.00       0.00      0.000
4:52am            352          0          0         45         93       74.0       62.4      29.34       62.4        544        512        912      -0.32       0.00       0.00      0.000
4:53am            352          0          0         44         93       74.0       62.4      29.34       62.4        541        512        909      -0.32       0.00       0.00      0.000
4:54am            352          0          0         45         93       74.0       62.4      29.34       62.4        541        512        909      -0.31       0.00       0.00      0.000
4:55am            352          0          0         45         93       74.0       62.5      29.34       62.5        540        512        914      -0.21       0.00       0.00      0.000
4:56am            352          0          0         44         93       74.0       62.5      29.34       62.5        540        512        914      -0.21       0.00       0.00      0.000
4:57am            352          0          0         44         92       74.0       62.5      29.34       62.5        539        588        913      -0.20       0.00       0.00      0.000
4:58am            352          0          0         45         92       74.0       62.5      29.34       62.5        540        588        914      -0.20       0.00       0.00      0.000
4:59am            352          0          0         45         92       74.0       62.5      29.34       62.5        539        588        913      -0.20       0.00       0.00      0.000
5:00am            352          0          0         45         92       74.0       62.5      29.34       62.5        538        588        912      -0.19       0.00       0.00      0.000
5:01am            352          0          0         45         92       74.0       62.6      29.34       62.6        537        588        917      -0.09       0.00       0.00      0.000
5:02am            352          0          0         45         92       74.0       62.6      29.34       62.6        537        588        917      -0.09       0.00       0.00      0.000
5:03am            352          0          0         45         92       74.0       62.6      29.34       62.6        536        588        916      -0.09       0.00       0.00      0.000
5:04am            352          0          0         45         92       74.0       62.6      29.34       62.6        536        588        916      -0.09       0.00       0.00      0.000
5:05am            352          0          0         45         92       74.0       62.6      29.35       62.6        536        588        915      -0.09       0.00       0.00      0.000
5:06am            352          0          0         45         92       74.2       62.7      29.35       62.7        536        588        922       0.01       0.00       0.00      0.000
5:07am            352          0          0         45         92       74.2       62.6      29.34       62.6        536        588        916      -0.08       0.00       0.00      0.000
5:08am            352          0          0         45         92       74.2       62.7      29.35       62.7        536        588        922       0.02       0.00       0.00      0.000
5:09am            352          0          0         44         92       74.2       62.7      29.35       62.7        536        588        922       0.02       0.00       0.00      0.000
5:10am            352          0          0         45         92       74.2       62.7      29.35       62.7        536        588        922       0.02       0.00       0.00      0.000
5:11am            352          0          0         45         92       74.2       62.7      29.35       62.7        536        588        922       0.02       0.00       0.00      0.000
5:12am            352          0          0         44         92       74.2       62.7      29.35       62.7        535        588        921       0.01       0.00       0.00      0.000
5:13am            352          0          0         45         92       74.2       62.7      29.35       62.7        535        588        921       0.01       0.00       0.00      0.000
5:14am            352          0          0         45         92       74.2       62.7      29.35       62.7        535        588        921       0.01       0.00       0.00      0.000
5:15am            352          0          0         44         91       74.2       62.7      29.35       62.7        535        665        921       0.01       0.00       0.00      0.000
5:16am            352          0          0         44         91       74.2       62.7      29.35       62.7        534        665        919       0.01       0.00       0.00      0.000
5:17am            352          0          0         45         91       74.2       62.7      29.35       62.7        534        665        919       0.01       0.00       0.00      0.000
5:18am            352          0          0         45         91       74.2       62.7      29.35       62.7        534        665        919       0.01       0.00       0.00      0.000
5:19am            352          0          0         45         91       74.2       62.7      29.35       62.7        534        665        919       0.01       0.00       0.00      0.000
5:20am            352          0          0         45         91       74.2       62.7      29.35       62.7        534        665        919       0.01       0.00       0.00      0.000
5:21am            352          0          0         44         91       74.2       62.8      29.35       62.8        534        665        926       0.11       0.00       0.00      0.000
5:22am            352          0          0         45         91       74.2       62.7      29.35       62.7        534        665        919       0.01       0.00       0.00      0.000
5:23am            352          0          0         45         91       74.2       62.7      29.35       62.7        534        665        919       0.01       0.00       0.00      0.000
5:24am            352          0          0         44         91       74.2       62.7      29.35       62.7        534        665        919       0.01       0.00       0.00      0.000
5:25am            352          0          0         45         91       74.2       62.7      29.35       62.7        534        665        919       0.01       0.00       0.00      0.000
5:26am            352          0          0         45         91       74.2       62.7      29.35       62.7        534        665        919       0.01       0.00       0.00      0.000
5:27am            352          0          0         45         91       74.2       62.7      29.35       62.7        533        665        918       0.01       0.00       0.00      0.000
5:28am            352          0          0         45         91       74.2       62.7      29.35       62.7        533        665        918       0.01       0.00       0.00      0.000
5:29am            352          0          0         45         91       74.2       62.7      29.35       62.7        533        665        918       0.01       0.00       0.00      0.000
5:30am            352          0          0         45         91       74.2       62.7      29.35       62.7        533        665        918       0.01       0.00       0.00      0.000
5:31am            352          0          0         45         91       74.2       62.7      29.35       62.7        533        665        918       0.01       0.00       0.00      0.000
5:32am            352          0          0         45         91       74.2       62.7      29.35       62.7        533        665        918       0.01       0.00       0.00      0.000
5:33am            352          0          0         45         91       74.2       62.6      29.35       62.6        533        665        912      -0.09       0.00       0.00      0.000
5:34am            352          0          0         45         91       74.2       62.6      29.35       62.6        533        665        912      -0.09       0.00       0.00      0.000
5:35am            352          0          0         45         91       74.2       62.6      29.35       62.6        533        665        912      -0.09       0.00       0.00      0.000
5:36am            352          0          0         45         91       74.3       62.6      29.35       62.6        533        665        912      -0.08       0.00       0.00      0.000
5:37am            352          0          0         45         91       74.3       62.5      29.35       62.5        533        665        905      -0.18       0.00       0.00      0.000
5:38am            352          0          0         45         91       74.3       62.5      29.35       62.5        533        665        905      -0.18       0.00       0.00      0.000
5:39am            352          0          0         45         92       74.3       62.5      29.35       62.5        533        588        905      -0.18       0.00       0.00      0.000
5:40am            352          0          0         45         91       74.3       62.5      29.35       62.5        534        665        906      -0.18       0.00       0.00      0.000
5:41am            352          0          0         45         92       74.3       62.5      29.35       62.5        534        588        906      -0.17       0.00       0.00      0.000
5:42am            352          0          0         45         92       74.3       62.5      29.35       62.5        534        588        906      -0.17       0.00       0.00      0.000
5:43am            352          0          0         45         92       74.3       62.5      29.35       62.5        533        588        905      -0.17       0.00       0.00      0.000
5:44am            352          0          0         45         92       74.3       62.4      29.35       62.4        533        588        899      -0.26       0.00       0.00      0.000
5:45am            352          0          0         45         92       74.3       62.5      29.35       62.5        533        588        905      -0.16       0.00       0.00      0.000
5:46am            352          0          0         45         92       74.3       62.4      29.35       62.4        532        588        898      -0.26       0.00       0.00      0.000
5:47am            352          0          0         45         92       74.3       62.4      29.35       62.4        532        588        898      -0.25       0.00       0.00      0.000
5:48am            352          0          0         45         92       74.3       62.4      29.35       62.4        532        588        898      -0.25       0.00       0.00      0.000
5:49am            352          0          0         45         92       74.3       62.4      29.35       62.4        532        588        898      -0.24       0.00       0.00      0.000
5:50am            352          0          0         45         92       74.3       62.4      29.35       62.4        531        588        896      -0.24       0.00       0.00      0.000
5:51am            352          0          0         45         92       74.3       62.4      29.35       62.4        531        588        896      -0.24       0.00       0.00      0.000
5:52am            352          0          0         45         92       74.3       62.3      29.35       62.3        531        587        890      -0.33       0.00       0.00      0.000
5:53am            352          0          0         45         92       74.3       62.4      29.35       62.4        531        588        896      -0.23       0.00       0.00      0.000
5:54am            352          0          0         45         92       74.3       62.3      29.35       62.3        530        587        889      -0.32       0.00       0.00      0.000
5:55am            352          0          0         45         92       74.3       62.3      29.35       62.3        529        587        888      -0.32       0.00       0.00      0.000
5:56am            352          0          0         45         92       74.3       62.2      29.35       62.2        529        587        881      -0.41       0.00       0.00      0.000
5:57am            352          0          0         45         92       74.3       62.2      29.35       62.2        528        587        880      -0.40       0.00       0.00      0.000
5:58am            352          0          0         45         92       74.3       62.2      29.35       62.2        527        587        879      -0.40       0.00       0.00      0.000
5:59am            352          0          0         45         92       74.3       62.2      29.35       62.2        528        587        880      -0.39       0.00       0.00      0.000
6:00am            352          0          0         45         92       74.3       62.2      29.35       62.2        527        587        879      -0.38       0.00       0.00      0.000
6:01am            352          0          0         45         92       74.5       62.2      29.36       62.2        526        587        878      -0.38       0.00       0.00      0.000
6:02am            352          0          0         45         92       74.3       62.2      29.36       62.2        525        587        877      -0.37       0.00       0.00      0.000
6:03am            352          0          0         45         92       74.5       62.1      29.36       62.1        524        587        869      -0.47       0.00       0.00      0.000
6:04am            352          0          0         45         92       74.5       62.1      29.36       62.1        524        587        868      -0.46       0.00       0.00      0.000
6:05am            352          0          0         45         92       74.5       62.1      29.36       62.1        523        587        867      -0.45       0.00       0.00      0.000
6:06am            352          0          0         45         92       74.5       62.1      29.36       62.1        522        587        866      -0.45       0.00       0.00      0.000
6:07am            352          0          0         45         92       74.5       62.1      29.36       62.1        521        587        864      -0.44       0.00       0.00      0.000
6:08am            352          0          0         45         92       74.5       62.1      29.36       62.1        520        587        863      -0.43       0.00       0.00      0.000
6:09am            352          0          0         45         92       74.7       62.1      29.36       62.1        520        587        863      -0.42       0.00       0.00      0.000
6:10am            352          0          0         45         92       74.7       62.1      29.36       62.1        520        587        863      -0.42       0.00       0.00      0.000
6:11am            352          0          0         45         92       74.7       62.0      29.36       62.0        519        587        856      -0.51       0.00       0.00      0.000
6:12am            352          0          0         45         92       74.7       62.0      29.36       62.0        519        587        856      -0.50       0.00       0.00      0.000
6:13am            352          0          0         45         92       74.5       62.0      29.36       62.0        519        587        856      -0.49       0.00       0.00      0.000
6:14am            352          0          0         45         92       74.5       62.0      29.36       62.0        520        587        857      -0.49       0.00       0.00      0.000
6:15am            352          0          0         45         92       74.5       62.0      29.36       62.0        520        587        857      -0.48       0.00       0.00      0.000
6:16am            352          0          0         45         92       74.5       62.0      29.36       62.0        520        587        857      -0.47       0.00       0.00      0.000
6:17am            352          0          0         45         92       74.5       61.9      29.36       61.9        520        586        850      -0.56       0.00       0.00      0.000
6:18am            352          0          0         45         93       74.5       61.9      29.36       61.9        519        511        849      -0.55       0.00       0.00      0.000
6:19am            352          0          0         45         92       74.5       61.9      29.36       61.9        519        586        849      -0.54       0.00       0.00      0.000
6:20am            352          0          0         45         93       74.5       61.9      29.36       61.9        519        511        849      -0.54       0.00       0.00      0.000
6:21am            352          0          0         45         93       74.5       61.9      29.36       61.9        519        511        849      -0.53       0.00       0.00      0.000
6:22am            352          0          0         45         93       74.5       61.9      29.36       61.9        519        511        849      -0.52       0.00       0.00      0.000
6:23am            352          0          0         45         93       74.3       61.9      29.36       61.9        519        511        849      -0.51       0.00       0.00      0.000
6:24am            352          0          0         45         93       74.3       61.9      29.36       61.9        519        511        849      -0.50       0.00       0.00      0.000
6:25am            352          0          0         45         93       74.3       61.9      29.36       61.9        519        511        849      -0.49       0.00       0.00      0.000
6:26am            352          0          0         45         93       74.3       61.9      29.36       61.9        519        511        849      -0.48       0.00       0.00      0.000
6:27am            352          0          0         45         93       74.3       61.8      29.36       61.8        520        510        844      -0.58       0.00       0.00      0.000
6:28am            352          0          0         45         93       74.3       61.8      29.36       61.8        519        510        843      -0.57       0.00       0.00      0.000
6:29am            352          0          0         45         93       74.3       61.9      29.36       61.9        519        511        849      -0.46       0.00       0.00      0.000
6:30am            352          0          0         45         93       74.3       61.8      29.36       61.8        519        510        843      -0.55       0.00       0.00      0.000
6:31am            352          0          0         45         93       74.3       61.8      29.36       61.8        519        510        843      -0.54       0.00       0.00      0.000
6:32am            352          0          0         45         93       74.3       61.8      29.36       61.8        519        510        843      -0.53       0.00       0.00      0.000
6:33am            352          0          0         45         93       74.3       61.8      29.36       61.8        519        510        843      -0.52       0.00       0.00      0.000
6:34am            352          0          0         45         93       74.3       61.8      29.36       61.8        519        510        843      -0.51       0.00       0.00      0.000
6:35am            352          0          0         45         93       74.3       61.8      29.36       61.8        518        510        842      -0.50       0.00       0.00      0.000
6:36am            352          0          0         45         93       74.3       61.8      29.37       61.8        517        510        840      -0.50       0.00       0.00      0.000
6:37am            352          0          0         45         93       74.3       61.8      29.36       61.8        518        510        842      -0.49       0.00       0.00      0.000
6:38am            352          0          0         45         93       74.3       61.8      29.37       61.8        517        510        840      -0.48       0.00       0.00      0.000
6:39am            352          0          0         45         93       74.3       61.8      29.37       61.8        517        510        840      -0.47       0.00       0.00      0.000
6:40am            352          0          0         45         93       74.3       61.8      29.37       61.8        517        510        840      -0.46       0.00       0.00      0.000
6:41am            352          0          0         45         93       74.3       61.8      29.37       61.8        516        510        839      -0.46       0.00       0.00      0.000
6:42am            352          0          0         45         93       74.3       61.7      29.37       61.7        515        510        832      -0.55       0.00       0.00      0.000
6:43am            352          0          0         45         93       74.3       61.7      29.37       61.7        514        510        830      -0.54       0.00       0.00      0.000
6:44am            352          0          0         45         94       74.3       61.8      29.37       61.8        512        435        835      -0.43       0.00       0.00      0.000
6:45am            352          0          0         45         94       74.3       61.7      29.37       61.7        511        435        826      -0.52       0.00       0.00      0.000
6:46am            352          0          0         45         94       74.3       61.7      29.37       61.7        509        435        824      -0.51       0.00       0.00      0.000
6:47am            352          0          0         45         94       74.3       61.8      29.37       61.8        508        435        829      -0.41       0.00       0.00      0.000
6:48am            352          0          0         45         94       74.3       61.7      29.38       61.7        507        435        821      -0.50       0.00       0.00      0.000
6:49am            352          0          0         45         94       74.3       61.7      29.38       61.7        507        435        821      -0.49       0.00       0.00      0.000
6:50am            352          0          0         45         94       74.3       61.7      29.38       61.7        507        435        821      -0.48       0.00       0.00      0.000
6:51am            352          0          0         45         94       74.5       61.7      29.38       61.7        506        435        820      -0.47       0.00       0.00      0.000
6:52am            352          0          0         45         94       74.5       61.7      29.38       61.7        506        435        820      -0.47       0.00       0.00      0.000
6:53am            352          0          0         45         94       74.5       61.7      29.38       61.7        505        435        819      -0.46       0.00       0.00      0.000
6:54am            352          0          0         45         94       74.5       61.7      29.38       61.7        505        435        819      -0.45       0.00       0.00      0.000
6:55am            352          0          0         46         94       74.5       61.6      29.38       61.6        505        435        813      -0.54       0.00       0.00      0.000
6:56am            352          0          0         45         94       74.5       61.7      29.38       61.7        505        435        819      -0.44       0.00       0.00      0.000
6:57am            352          0          0         45         94       74.5       61.6      29.38       61.6        504        435        811      -0.53       0.00       0.00      0.000
6:58am            352          0          0         45         94       74.5       61.7      29.38       61.7        504        435        818      -0.42       0.00       0.00      0.000
6:59am            352          0          0         45         94       74.5       61.7      29.38       61.7        504        435        818      -0.41       0.00       0.00      0.000
7:00am            352          0          0         45         94       74.5       61.7      29.38       61.7        504        435        818      -0.41       0.00       0.00      0.000
7:01am            352          0          0         45         94       74.5       61.7      29.38       61.7        503        435        817      -0.40       0.00       0.00      0.000
7:02am            352          0          0         45         94       74.5       61.7      29.38       61.7        503        435        817      -0.39       0.00       0.00      0.000
7:03am            352          0          0         45         94       74.5       61.7      29.38       61.7        502        435        816      -0.39       0.00       0.00      0.000
7:04am            352          0          0         45         94       74.5       61.7      29.38       61.7        502        435        816      -0.38       0.00       0.00      0.000
7:05am            352          0          0         45         94       74.5       61.6      29.38       61.6        502        435        809      -0.47       0.00       0.00      0.000
7:06am            352          0          0         45         94       74.5       61.7      29.38       61.7        502        435        816      -0.37       0.00       0.00      0.000
7:07am            352          0          0         45         94       74.5       61.7      29.38       61.7        502        435        816      -0.36       0.00       0.00      0.000
7:08am            352          0          0         45         94       74.5       61.6      29.38       61.6        502        435        809      -0.45       0.00       0.00      0.000
7:09am            352          0          0         45         94       74.5       61.7      29.38       61.7        502        435        816      -0.35       0.00       0.00      0.000
7:10am            352          0          0         45         94       74.5       61.7      29.38       61.7        502        435        816      -0.34       0.00       0.00      0.000
7:11am            352          0          0         45         94       74.5       61.7      29.38       61.7        502        435        816      -0.33       0.00       0.00      0.000
7:12am            352          0          0         45         94       74.5       61.7      29.38       61.7        502        435        816      -0.33       0.00       0.00      0.000
7:13am            352          0          0         45         94       74.5       61.7      29.38       61.7        501        435        815      -0.32       0.00       0.00      0.000
7:14am            352          0          0         45         94       74.7       61.6      29.38       61.6        500        435        807      -0.42       0.00       0.00      0.000
7:15am            352          0          0         45         94       74.7       61.7      29.38       61.7        500        435        813      -0.31       0.00       0.00      0.000
7:16am            352          0          0         45         94       74.7       61.8      29.38       61.8        499        435        818      -0.21       0.00       0.00      0.000
7:17am            352          0          0         45         94       74.7       61.8      29.38       61.8        499        435        818      -0.20       0.00       0.00      0.000
7:18am            352          0          0         45         94       74.7       61.8      29.38       61.8        499        435        818      -0.20       0.00       0.00      0.000
7:19am            352          0          0         45         95       74.7       61.8      29.38       61.8        499        361        818      -0.20       0.00       0.00      0.000
7:20am            352          0          0         45         95       74.7       61.8      29.38       61.8        499        361        818      -0.19       0.00       0.00      0.000
7:21am            352          0          0         45         95       74.7       61.8      29.38       61.8        499        361        818      -0.19       0.00       0.00      0.000
7:22am            352          0          0         45         95       74.7       61.8      29.38       61.8        500        361        819      -0.19       0.00       0.00      0.000
7:23am            352          0          0         45         95       74.7       61.8      29.38       61.8        500        361        819      -0.18       0.00       0.00      0.000
7:24am            352          0          0         45         95       74.7       61.8      29.39       61.8        498        361        817      -0.18       0.00       0.00      0.000
7:25am            352          0          0         45         95       74.7       61.8      29.39       61.8        498        361        817      -0.18       0.00       0.00      0.000
7:26am            352          0          0         45         95       74.7       61.8      29.39       61.8        498        361        817      -0.17       0.00       0.00      0.000
7:27am            352          0          0         45         95       74.7       61.8      29.38       61.8        499        361        818      -0.17       0.00       0.00      0.000
7:28am            352          0          0         45         95       74.7       61.9      29.38       61.9        499        361        824      -0.07       0.00       0.00      0.000
7:29am            352          0          0         45         95       74.7       61.9      29.38       61.9        499        361        824      -0.07       0.00       0.00      0.000
7:30am            352          0          0         45         95       74.7       61.9      29.38       61.9        499        361        824      -0.07       0.00       0.00      0.000
7:31am            352          0          0         45         95       74.7       61.9      29.39       61.9        498        361        823      -0.07       0.00       0.00      0.000
7:32am            352          0          0         45         95       74.7       62.0      29.39       62.0        496        361        827       0.03       0.00       0.00      0.000
7:33am            352          0          0         45         95       74.7       62.0      29.39       62.0        495        361        826       0.03       0.00       0.00      0.000
7:34am            352          0          0         45         95       74.7       62.0      29.39       62.0        494        361        825       0.03       0.00       0.00      0.000
7:35am            352          0          0         45         95       74.7       62.0      29.39       62.0        494        361        825       0.03       0.00       0.00      0.000
7:36am            352          0          0         45         95       74.7       62.0      29.39       62.0        493        361        824       0.03       0.00       0.00      0.000
7:37am            352          0          0         45         95       74.7       62.1      29.39       62.1        493        361        830       0.13       0.00       0.00      0.000
7:38am            352          0          0         45         95       74.7       62.1      29.39       62.1        492        361        829       0.13       0.00       0.00      0.000
7:39am            352          0          0         45         95       74.7       62.1      29.39       62.1        492        361        829       0.13       0.00       0.00      0.000
7:40am            352          0          0         45         95       74.7       62.2      29.39       62.2        492        361        836       0.22       0.00       0.00      0.000
7:41am            352          0          0         45         95       74.7       62.3      29.39       62.3        492        362        842       0.32       0.00       0.00      0.000
7:42am            352          0          0         45         95       74.7       62.3      29.39       62.3        491        362        841       0.31       0.00       0.00      0.000
7:43am            352          0          0         45         95       74.7       62.4      29.39       62.4        490        362        847       0.41       0.00       0.00      0.000
7:44am            352          0          0         45         95       74.7       62.5      29.39       62.5        490        362        853       0.50       0.00       0.00      0.000
7:45am            352          0          0         45         95       74.7       62.5      29.39       62.5        490        362        853       0.49       0.00       0.00      0.000
7:46am            352          0          0         45         95       74.7       62.6      29.39       62.6        490        362        860       0.58       0.00       0.00      0.000
7:47am            352          0          0         45         94       74.9       62.7      29.39       62.7        490        437        866       0.67       0.00       0.00      0.000
7:48am            352          0          0         45         95       74.9       62.8      29.39       62.8        490        362        873       0.76       0.00       0.00      0.000
7:49am            352          0          0         45         95       74.9       62.9      29.39       62.9        490        363        879       0.85       0.00       0.00      0.000
7:50am            352          0          0         45         95       74.9       62.9      29.39       62.9        490        363        879       0.83       0.00       0.00      0.000
7:51am            347          0          0         45         94       74.9       63.0      29.39       63.0        490        437        886       0.92       0.00       0.00      0.000
7:52am            347          0          0         45         94       74.9       63.1      29.39       63.1        490        438        892       1.00       0.00       0.00      0.000
7:53am            351          0          0         45         94       74.9       63.2      29.39       63.2        490        438        899       1.08       0.00       0.00      0.000
7:54am            351          0          0         45         94       74.9       63.3      29.39       63.3        490        438        905       1.17       0.00       0.00      0.000
7:55am            351          0          0         45         94       74.9       63.3      29.39       63.3        490        438        905       1.15       0.00       0.00      0.000
7:56am            351          0          0         45         93       74.9       63.4      29.39       63.4        489        514        910       1.22       0.00       0.00      0.000
7:57am            351          0          0         45         93       74.9       63.6      29.39       63.6        489        514        923       1.40       0.00       0.00      0.000
7:58am            351          0          0         45         93       74.9       63.6      29.39       63.6        489        514        923       1.38       0.00       0.00      0.000
7:59am             63          0          0         45         92       74.9       63.7      29.39       63.7        489        591        930       1.46       0.00       0.00      0.000
8:00am             27          0          0         45         92       74.9       63.7      29.39       63.7        489        591        930       1.43       0.00       0.00      0.000
8:01am             27          0          0         45         92       74.9       63.8      29.39       63.8        489        591        936       1.51       0.00       0.00      0.000
8:02am             27          0          0         45         92       74.9       63.9      29.39       63.9        489        591        943       1.58       0.00       0.00      0.000
8:03am             27          0          0         45         92       74.9       64.0      29.39       64.0        489        592        949       1.65       0.00       0.00      0.000
8:04am             27          0          0         45         92       74.9       64.0      29.40       64.0        488        592        948       1.63       0.00       0.00      0.000
8:05am             27          0          0         45         91       74.9       64.1      29.40       64.1        488        669        955       1.70       0.00       0.00      0.000
8:06am            310          0          0         45         91       74.9       64.1      29.40       64.1        488        669        955       1.67       0.00       0.00      0.000
8:07am            327          0          0         45         91       74.9       64.2      29.40       64.2        488        669        960       1.74       0.00       0.00      0.000
8:08am            327          0          0         45         91       74.9       64.2      29.40       64.2        487        669        959       1.71       0.00       0.00      0.000
8:09am            327          0          0         45         91       74.9       64.3      29.40       64.3        486        670        964       1.78       0.00       0.00      0.000
8:10am            331          0          0         45         91       74.9       64.4      29.40       64.4        486        670        971       1.85       0.00       0.00      0.000
8:11am            343          0          0         45         91       74.9       64.5      29.40       64.5        485        670        976       1.92       0.00       0.00      0.000
8:12am            346          0          0         45         91       74.9       64.5      29.40       64.5        485        670        976       1.89       0.00       0.00      0.000
8:13am            351          0          0         45         91       75.0       64.6      29.40       64.6        484        670        981       1.96       0.00       0.00      0.000
8:14am            356          0          0         45         91       75.0       64.7      29.40       64.7        484        671        988       2.03       0.00       0.00      0.000
8:15am            356          0          0         45         91       75.0       64.7      29.40       64.7        483        671        987       1.99       0.00       0.00      0.000
8:16am            356          0          0         45         91       75.0       64.8      29.40       64.8        483        671        993       2.05       0.00       0.00      0.000
8:17am            356          0          0         45         91       75.0       64.9      29.40       64.9        483        671       1000       2.12       0.00       0.00      0.000
8:18am            356          0          0         45         91       75.0       64.9      29.40       64.9        482        671        998       2.09       0.00       0.00      0.000
8:19am            360          0          0         45         91       75.0       65.0      29.40       65.0        482        672       1005       2.15       0.00       0.00      0.000
8:20am            360          0          0         45         91       75.0       65.1      29.40       65.1        481        672       1010       2.22       0.00       0.00      0.000
8:21am             12          0          0         45         90       75.0       65.2      29.40       65.2        481        751       1017       2.28       0.00       0.00      0.000
8:22am             81          0          0         45         90       75.0       65.2      29.40       65.2        480        751       1016       2.24       0.00       0.00      0.000
8:23am             81          0          0         45         90       75.0       65.3      29.40       65.3        480        751       1022       2.31       0.00       0.00      0.000
8:24am             81          0          0         45         90       75.0       65.3      29.40       65.3        480        751       1022       2.27       0.00       0.00      0.000
8:25am             81          0          0         45         90       75.0       65.4      29.40       65.4        480        751       1029       2.33       0.00       0.00      0.000
8:26am             81          0          0         45         90       75.0       65.5      29.41       65.5        478        752       1033       2.39       0.00       0.00      0.000
8:27am             81          0          0         45         90       75.0       65.5      29.41       65.5        477        752       1032       2.35       0.00       0.00      0.000
8:28am             81          0          0         45         90       75.0       65.6      29.41       65.6        477        752       1038       2.41       0.00       0.00      0.000
8:29am             81          0          0         45         90       75.0       65.7      29.41       65.7        477        752       1044       2.47       0.00       0.00      0.000
8:30am             81          0          0         45         90       75.0       65.8      29.41       65.8        477        752       1051       2.53       0.00       0.00      0.000
8:31am             81          0          0         45         90       75.0       65.8      29.41       65.8        476        752       1050       2.49       0.00       0.00      0.000
8:32am             81          0          0         45         90       75.0       65.9      29.41       65.9        476        753       1056       2.54       0.00       0.00      0.000
8:33am             81          0          0         45         89       75.0       66.0      29.41       66.0        476        833       1063       2.60       0.00       0.00      0.000
8:34am             81          0          0         45         90       75.0       66.0      29.41       66.0        476        753       1063       2.56       0.00       0.00      0.000
8:35am             81          0          0         45         90       75.0       66.1      29.41       66.1        476        753       1068       2.62       0.00       0.00      0.000
8:36am             32          0          0         45         90       75.2       66.1      29.41       66.1        476        753       1069       2.57       0.00       0.00      0.000
8:37am            347          0          0         45         89       75.2       66.2      29.41       66.2        476        833       1076       2.63       0.00       0.00      0.000
8:38am            347          0          0         45         89       75.2       66.3      29.41       66.3        476        834       1082       2.69       0.00       0.00      0.000
8:39am            331          0          0         45         89       75.2       66.4      29.41       66.4        476        834       1088       2.74       0.00       0.00      0.000
8:40am             59          0          0         45         89       75.2       66.4      29.41       66.4        476        834       1087       2.70       0.00       0.00      0.000
8:41am             58          0          0         45         89       75.2       66.5      29.41       66.5        475        834       1093       2.75       0.00       0.00      0.000
8:42am             58          0          0         45         89       75.2       66.5      29.41       66.5        475        834       1093       2.70       0.00       0.00      0.000
8:43am             58          0          0         45         89       75.2       66.6      29.41       66.6        475        835       1099       2.76       0.00       0.00      0.000
8:44am             58          0          0         45         89       75.2       66.7      29.41       66.7        475        835       1106       2.81       0.00       0.00      0.000
8:45am            328          0          0         45         89       75.2       66.8      29.41       66.8        475        835       1112       2.87       0.00       0.00      0.000
8:46am            347          0          0         45         89       75.2       66.8      29.41       66.8        475        835       1112       2.82       0.00       0.00      0.000
8:47am            347          0          0         45         88       75.2       66.9      29.41       66.9        475        916       1118       2.87       0.00       0.00      0.000
8:48am            347          0          0         45         88       75.2       67.0      29.41       67.0        475        917       1125       2.92       0.00       0.00      0.000
8:49am            347          0          0         45         88       75.2       67.0      29.41       67.0        475        917       1125       2.87       0.00       0.00      0.000
8:50am            347          0          0         45         88       75.2       67.1      29.41       67.1        475        917       1131       2.92       0.00       0.00      0.000
8:51am            347          0          0         45         88       75.2       67.2      29.41       67.2        476        917       1139       2.97       0.00       0.00      0.000
8:52am            347          0          0         45         88       75.2       67.3      29.41       67.3        475        918       1144       3.02       0.00       0.00      0.000
8:53am             37          0          0         45         88       75.2       67.4      29.41       67.4        476        918       1152       3.07       0.00       0.00      0.000
8:54am             57          0          0         45         88       75.2       67.5      29.41       67.5        475        918       1157       3.12       0.00       0.00      0.000
8:55am            349          0          0         45         88       75.2       67.6      29.41       67.6        476        919       1165       3.17       0.00       0.00      0.000
8:56am              8          0          0         45         87       75.2       67.7      29.41       67.7        476       1001       1171       3.22       0.00       0.00      0.000
8:57am             43          0          0         45         87       75.2       67.7      29.41       67.7        476       1001       1171       3.16       0.00       0.00      0.000
8:58am             43          0          0         45         87       75.2       67.8      29.41       67.8        476       1001       1177       3.21       0.00       0.00      0.000
8:59am             27          0          0         45         87       75.4       67.9      29.41       67.9        476       1002       1184       3.25       0.00       0.00      0.000
9:00am             23          0          0         45         87       75.4       68.0      29.41       68.0        476       1002       1190       3.30       0.00       0.00      0.000
9:01am             23          0          0         45         87       75.4       68.0      29.41       68.0        476       1002       1191       3.24       0.00       0.00      0.000
9:02am             23          0          0         45         87       75.4       68.1      29.41       68.1        476       1003       1198       3.29       0.00       0.00      0.000
9:03am              6          0          0         45         87       75.4       68.1      29.41       68.1        476       1003       1198       3.24       0.00       0.00      0.000
9:04am             79          0          0         45         87       75.4       68.2      29.41       68.2        476       1003       1204       3.28       0.00       0.00      0.000
9:05am             17          0          0         45         87       75.4       68.3      29.41       68.3        476       1003       1211       3.33       0.00       0.00      0.000
9:06am             16          0          0         45         86       75.4       68.3      29.41       68.3        476       1086       1211       3.27       0.00       0.00      0.000
9:07am             16          0          0         45         86       75.4       68.4      29.41       68.4        476       1086       1217       3.32       0.00       0.00      0.000
9:08am             21          0          0         45         86       75.4       68.4      29.41       68.4        476       1086       1217       3.26       0.00       0.00      0.000
9:09am             21          0          0         45         87       75.4       68.5      29.41       68.5        476       1004       1224       3.31       0.00       0.00      0.000
9:10am             79          0          0         45         86       75.4       68.6      29.41       68.6        476       1087       1230       3.35       0.00       0.00      0.000
9:11am             79          0          0         45         86       75.4       68.7      29.41       68.7        476       1088       1236       3.40       0.00       0.00      0.000
9:12am             79          0          0         45         86       75.4       68.8      29.41       68.8        476       1088       1243       3.44       0.00       0.00      0.000
9:13am             79          0          0         45         87       75.4       69.0      29.41       69.0        476       1006       1254       3.58       0.00       0.00      0.000
9:14am             79          0          0         45         86       75.4       69.1      29.41       69.1        476       1090       1261       3.62       0.00       0.00      0.000
9:15am             79          0          0         45         86       75.4       69.3      29.41       69.3        476       1091       1274       3.76       0.00       0.00      0.000
9:16am             79          0          0         45         86       75.4       69.4      29.41       69.4        476       1091       1280       3.80       0.00       0.00      0.000
9:17am             79          0          0         45         86       75.4       69.5      29.41       69.5        476       1091       1286       3.83       0.00       0.00      0.000
9:18am             79          0          0         45         86       75.4       69.7      29.41       69.7        476       1092       1299       3.97       0.00       0.00      0.000
9:19am             79          0          0         45         86       75.6       69.9      29.41       69.9        476       1093       1312       4.10       0.00       0.00      0.000
9:20am             79          0          0         45         86       75.6       70.0      29.41       70.0        476       1094       1318       4.13       0.00       0.00      0.000
9:21am             79          0          0         45         85       75.6       70.1      29.41       70.1        476       1178       1325       4.16       0.00       0.00      0.000
9:22am             79          0          0         45         85       75.6       70.2      29.41       70.2        476       1179       1331       4.19       0.00       0.00      0.000
9:23am             79          0          0         45         85       75.6       70.4      29.41       70.4        476       1180       1345       4.32       0.00       0.00      0.000
9:24am             79          0          0         45         85       75.6       70.5      29.41       70.5        476       1180       1350       4.35       0.00       0.00      0.000
9:25am             79          0          0         45         85       75.6       70.7      29.41       70.7        476       1181       1363       4.47       0.00       0.00      0.000
9:26am             79          0          0         45         84       75.6       70.9      29.41       70.9        476       1268       1376       4.60       0.00       0.00      0.000
9:27am             81          0          0         45         83       75.6       71.0      29.41       71.0        476       1354       1382       4.62       0.00       0.00      0.000
9:28am             81          0          0         45         82       75.6       71.0      29.41       71.0        476       1441       1382       4.54       0.00       0.00      0.000
9:29am             80          0          0         45         83       75.6       71.0      29.41       71.0        476       1354       1382       4.47       0.00       0.00      0.000
9:30am             80          0          0         45         83       75.6       71.0      29.41       71.0        476       1354       1382       4.40       0.00       0.00      0.000
9:31am             80          0          0         45         83       75.4       71.1      29.41       71.1        476       1355       1389       4.42       0.00       0.00      0.000
9:32am             80          0          0         45         83       75.4       71.2      29.41       71.2        476       1355       1395       4.45       0.00       0.00      0.000
9:33am             80          0          0         45         83       75.4       71.3      29.41       71.3        476       1356       1402       4.47       0.00       0.00      0.000
9:34am             80          0          0         45         83       75.4       71.3      29.41       71.3        476       1356       1401       4.40       0.00       0.00      0.000
9:35am             80          0          0         45         83       75.4       71.3      29.41       71.3        476       1356       1402       4.32       0.00       0.00      0.000
9:36am             80          0          0         45         83       75.4       71.4      29.41       71.4        476       1357       1409       4.35       0.00       0.00      0.000
9:37am             80          0          0         45         83       75.4       71.4      29.41       71.4        476       1357       1409       4.28       0.00       0.00      0.000
9:38am             80          0          0         45         83       75.4       71.5      29.41       71.5        476       1357       1415       4.31       0.00       0.00      0.000
9:39am             80          0          0         45         83       75.2       71.5      29.41       71.5        476       1357       1414       4.24       0.00       0.00      0.000
9:40am             80          0          0         45         83       75.2       71.5      29.41       71.5        476       1357       1414       4.17       0.00       0.00      0.000
9:41am             80          0          0         45         83       75.2       71.5      29.41       71.5        476       1357       1414       4.10       0.00       0.00      0.000
9:42am             80          0          0         45         83       75.2       71.7      29.41       71.7        476       1358       1427       4.23       0.00       0.00      0.000
9:43am             80          0          0         45         83       75.2       71.7      29.41       71.7        476       1358       1427       4.16       0.00       0.00      0.000
9:44am             80          0          0         45         83       75.2       71.8      29.41       71.8        476       1359       1433       4.19       0.00       0.00      0.000
9:45am             80          0          0         45         83       75.2       71.9      29.41       71.9        476       1359       1440       4.22       0.00       0.00      0.000
9:46am             80          0          0         45         82       75.2       71.9      29.41       71.9        475       1447       1438       4.15       0.00       0.00      0.000
9:47am             80          0          0         45         82       75.0       72.0      29.41       72.0        476       1447       1446       4.18       0.00       0.00      0.000
9:48am             81          0          0         45         82       75.0       72.0      29.41       72.0        475       1447       1445       4.11       0.00       0.00      0.000
9:49am             80          0          0         45         81       75.0       72.1      29.41       72.1        475       1536       1451       4.15       0.00       0.00      0.000
9:50am             80          0          0         45         81       75.0       72.2      29.41       72.2        475       1537       1458       4.17       0.00       0.00      0.000
9:51am             81          0          0         45         80       75.0       72.2      29.41       72.2        475       1627       1458       4.11       0.00       0.00      0.000
9:52am             81          0          0         45         79       75.0       72.1      29.41       72.1        475       1716       1451       3.94       0.00       0.00      0.000
9:53am             81          0          0         45         80       75.0       72.1      29.41       72.1        475       1626       1451       3.87       0.00       0.00      0.000
9:54am             81          0          0         45         81       75.0       72.1      29.41       72.1        475       1536       1451       3.81       0.00       0.00      0.000
9:55am             81          0          0         45         80       75.0       72.1      29.41       72.1        475       1626       1451       3.75       0.00       0.00      0.000
9:56am             81          0          0         45         80       75.0       72.1      29.41       72.1        475       1626       1451       3.69       0.00       0.00      0.000
9:57am             81          0          0         45         80       75.0       72.1      29.41       72.1        476       1626       1452       3.63       0.00       0.00      0.000
9:58am             81          0          0         45         80       75.0       72.0      29.41       72.0        476       1625       1446       3.46       0.00       0.00      0.000
9:59am             75          0          0         45         80       75.0       72.1      29.41       72.1        476       1626       1452       3.50       0.00       0.00      0.000
10:00am            75          0          0         45         80       75.0       72.1      29.41       72.1        475       1626       1451       3.45       0.00       0.00      0.000
10:01am            75          0          0         45         81       75.2       72.1      29.41       72.1        475       1536       1451       3.39       0.00       0.00      0.000
10:02am            76          0          0         45         81       75.2       72.2      29.41       72.2        475       1537       1458       3.43       0.00       0.00      0.000
10:03am            79          0          0         45         81       75.2       72.3      29.41       72.3        475       1538       1464       3.48       0.00       0.00      0.000
10:04am            79          0          0         45         80       75.2       72.4      29.41       72.4        475       1628       1470       3.52       0.00       0.00      0.000
10:05am            79          0          0         45         81       75.2       72.5      29.41       72.5        476       1539       1478       3.56       0.00       0.00      0.000
10:06am            79          0          0         45         81       75.2       72.5      29.41       72.5        476       1539       1478       3.50       0.00       0.00      0.000
10:07am            79          0          0         45         80       75.2       72.6      29.41       72.6        476       1629       1484       3.54       0.00       0.00      0.000
10:08am            79          0          0         45         80       75.2       72.6      29.41       72.6        476       1629       1484       3.48       0.00       0.00      0.000
10:09am            79          0          0         45         81       75.2       72.8      29.41       72.8        476       1541       1497       3.62       0.00       0.00      0.000
10:10am            79          0          0         45         80       75.2       72.8      29.41       72.8        475       1631       1496       3.56       0.00       0.00      0.000
10:11am            66          0          0         45         80       75.2       72.8      29.41       72.8        476       1631       1497       3.50       0.00       0.00      0.000
10:12am            39          0          0         45         79       75.2       72.8      29.41       72.8        476       1721       1497       3.44       0.00       0.00      0.000
10:13am            39          0          0         45         79       75.2       72.8      29.41       72.8        476       1721       1497       3.39       0.00       0.00      0.000
10:14am            73          0          0         45         80       75.2       72.8      29.41       72.8        475       1631       1496       3.33       0.00       0.00      0.000
10:15am             1          0          0         45         79       75.2       72.8      29.41       72.8        475       1721       1496       3.28       0.00       0.00      0.000
10:16am            79          0          0         45         78       75.2       72.8      29.41       72.8        475       1813       1496       3.23       0.00       0.00      0.000
10:17am            80          0          0         45         79       75.2       72.7      29.41       72.7        475       1721       1489       3.07       0.00       0.00      0.000
10:18am            80          0          0         45         79       75.0       72.7      29.41       72.7        475       1721       1489       3.02       0.00       0.00      0.000
10:19am            80          0          0         45         79       75.0       72.8      29.41       72.8        475       1721       1496       3.07       0.00       0.00      0.000
10:20am            80          0          0         45         79       75.0       72.8      29.41       72.8        475       1721       1496       3.02       0.00       0.00      0.000
10:21am            80          0          0         45         81       75.0       72.9      29.41       72.9        475       1542       1502       3.07       0.00       0.00      0.000
10:22am            80          0          0         45         81       75.0       73.0      29.41       73.0        475       1542       1508       3.12       0.00       0.00      0.000
10:23am            80          0          0         45         80       75.0       73.0      29.41       73.0        475       1632       1508       3.07       0.00       0.00      0.000
10:24am            80          0          0         45         79       75.0       73.0      29.41       73.0        474       1723       1507       3.02       0.00       0.00      0.000
10:25am            80          0          0         45         79       75.0       73.0      29.41       73.0        474       1723       1507       2.97       0.00       0.00      0.000
10:26am            80          0          0         45         79       75.0       73.1      29.41       73.1        474       1723       1514       3.02       0.00       0.00      0.000
10:27am            80          0          0         45         79       74.9       73.2      29.41       73.2        473       1724       1519       3.07       0.00       0.00      0.000
10:28am            80          0          0         45         79       74.9       73.4      29.41       73.4        473       1726       1531       3.22       0.00       0.00      0.000
10:29am            80          0          0         45         78       74.9       73.6      29.41       73.6        474       1819       1545       3.36       0.00       0.00      0.000
10:30am            80          0          0         45         79       74.9       73.7      29.41       73.7        472       1728       1549       3.41       0.00       0.00      0.000
10:31am            80          0          0         45         78       74.9       73.7      29.41       73.7        472       1820       1549       3.35       0.00       0.00      0.000
10:32am            80          0          0         45         78       74.9       73.8      29.41       73.8        472       1821       1556       3.39       0.00       0.00      0.000
10:33am            80          0          0         45         78       74.9       73.9      29.41       73.9        472       1821       1562       3.43       0.00       0.00      0.000
10:34am            80          0          0         45         77       74.9       73.9      29.41       73.9        471       1914       1561       3.38       0.00       0.00      0.000
10:35am           350          0          0         45         77       74.9       73.9      29.41       73.9        471       1914       1561       3.32       0.00       0.00      0.000
10:36am           337          0          0         45         77       74.9       73.9      29.41       73.9        472       1914       1562       3.27       0.00       0.00      0.000
10:37am           333          0          0         45         77       74.9       73.9      29.41       73.9        473       1914       1563       3.21       0.00       0.00      0.000
10:38am           333          0          0         45         78       74.9       73.8      29.41       73.8        472       1821       1556       3.06       0.00       0.00      0.000
10:39am           334          0          0         45         78       74.9       73.8      29.41       73.8        472       1821       1556       3.01       0.00       0.00      0.000
10:40am           334          0          0         45         78       74.9       73.8      29.41       73.8        473       1821       1557       2.96       0.00       0.00      0.000
10:41am           334          0          0         45         79       74.9       73.8      29.41       73.8        473       1728       1557       2.91       0.00       0.00      0.000
10:42am           334          0          0         45         80       74.9       73.9      29.41       73.9        473       1638       1563       2.96       0.00       0.00      0.000
10:43am            33          0          0         45         79       74.9       74.0      29.41       74.0        473       1730       1569       3.01       0.00       0.00      0.000
10:44am            22          0          0         45         78       74.9       74.0      29.41       74.0        473       1822       1569       2.96       0.00       0.00      0.000
10:45am            34          0          0         45         77       74.9       74.1      29.41       74.1        473       1916       1576       3.01       0.00       0.00      0.000
10:46am            34          0          0         45         77       74.9       74.1      29.41       74.1        472       1916       1575       2.96       0.00       0.00      0.000
10:47am            34          0          0         45         78       74.9       74.2      29.41       74.2        471       1824       1580       3.01       0.00       0.00      0.000
10:48am            33          0          0         45         78       74.9       74.2      29.41       74.2        471       1824       1580       2.96       0.00       0.00      0.000
10:49am            33          0          0         45         79       74.9       74.2      29.42       74.2        470       1731       1579       2.91       0.00       0.00      0.000
10:50am            33          0          0         45         77       74.9       74.3      29.42       74.3        470       1918       1585       2.96       0.00       0.00      0.000
10:51am           220          0          0         45         77       74.9       74.3      29.41       74.3        471       1918       1586       2.91       0.00       0.00      0.000
10:52am           349          0          0         45         76       74.9       74.3      29.41       74.3        471       2012       1586       2.86       0.00       0.00      0.000
10:53am           349          0          0         45         76       74.9       74.3      29.41       74.3        471       2012       1586       2.82       0.00       0.00      0.000
10:54am           349          0          0         45         78       74.9       74.5      29.42       74.5        469       1826       1597       2.97       0.00       0.00      0.000
10:55am            76          0          0         45         77       74.9       74.5      29.42       74.5        469       1919       1597       2.92       0.00       0.00      0.000
10:56am            23          0          0         45         76       74.9       74.6      29.42       74.6        470       2014       1604       2.97       0.00       0.00      0.000
10:57am            77          0          0         45         76       74.9       74.6      29.41       74.6        471       2014       1605       2.92       0.00       0.00      0.000
10:58am            77          0          0         45         76       74.9       74.6      29.41       74.6        472       2014       1606       2.87       0.00       0.00      0.000
10:59am            77          0          0         45         76       74.9       74.6      29.41       74.6        473       2014       1607       2.83       0.00       0.00      0.000
11:00am            77          0          0         45         77       74.9       74.6      29.41       74.6        473       1920       1607       2.78       0.00       0.00      0.000
11:01am            59          0          0         45         77       74.9       74.7      29.41       74.7        473       1921       1614       2.83       0.00       0.00      0.000
11:02am            57          0          0         45         77       74.9       74.9      29.41       74.9        472       1922       1625       2.99       0.00       0.00      0.000
11:03am            86          0          0         45         76       74.9       74.9      29.41       74.9        473       2017       1626       2.94       0.00       0.00      0.000
11:04am            83          0          0         45         75       74.9       74.9      29.41       74.9        473       2113       1626       2.89       0.00       0.00      0.000
11:05am            83          0          0         45         76       74.7       74.8      29.41       74.8        472       2016       1619       2.74       0.00       0.00      0.000
11:06am            83          0          0         45         76       74.7       74.8      29.41       74.8        472       2016       1619       2.70       0.00       0.00      0.000
11:07am            83          0          0         45         76       74.7       74.8      29.41       74.8        472       2016       1619       2.65       0.00       0.00      0.000
11:08am           357          0          0         45         77       74.7       74.9      29.42       74.9        470       1922       1623       2.71       0.00       0.00      0.000
11:09am           351          0          0         45         75       74.7       74.9      29.42       74.9        469       2113       1622       2.66       0.00       0.00      0.000
11:10am           350          0          0         45         75       74.7       74.9      29.42       74.9        470       2113       1623       2.62       0.00       0.00      0.000
11:11am            37          0          0         45         75       74.7       75.0      29.42       75.0        468       2114       1627       2.67       0.00       0.00      0.000
11:12am            80          0          0         45         74       74.5       75.0      29.42       75.0        466       2210       1625       2.63       0.00       0.00      0.000
11:13am            80          0          0         45         74       74.5       74.9      29.42       74.9        466       2209       1618       2.49       0.00       0.00      0.000
11:14am            80          0          0         45         74       74.5       74.9      29.42       74.9        465       2209       1617       2.45       0.00       0.00      0.000
11:15am            73          0          0         45         75       74.5       75.0      29.42       75.0        464       2114       1623       2.51       0.00       0.00      0.000
11:16am            77          0          0         45         75       74.5       74.9      29.42       74.9        464       2113       1616       2.37       0.00       0.00      0.000
11:17am            59          0          0         45         75       74.5       75.0      29.42       75.0        465       2114       1624       2.43       0.00       0.00      0.000
11:18am            78          0          0         45         75       74.5       75.2      29.42       75.2        467       2115       1639       2.58       0.00       0.00      0.000
11:19am            81          0          0         45         74       74.5       75.2      29.42       75.2        466       2212       1637       2.54       0.00       0.00      0.000
11:20am            81          0          0         45         73       74.5       75.2      29.42       75.2        468       2310       1640       2.50       0.00       0.00      0.000
11:21am            83          0          0         45         74       74.5       75.2      29.42       75.2        466       2212       1637       2.46       0.00       0.00      0.000
11:22am            82          0          0         45         74       74.5       75.1      29.42       75.1        466       2211       1631       2.32       0.00       0.00      0.000
11:23am            82          0          0         45         74       74.5       75.0      29.42       75.0        466       2210       1625       2.18       0.00       0.00      0.000
11:24am            82          0          0         45         75       74.5       75.1      29.42       75.1        464       2114       1629       2.24       0.00       0.00      0.000
11:25am            82          0          0         45         75       74.5       75.2      29.42       75.2        464       2115       1634       2.31       0.00       0.00      0.000
11:26am            82          0          0         45         75       74.5       75.3      29.42       75.3        463       2116       1639       2.37       0.00       0.00      0.000
11:27am           347          0          0         45         74       74.5       75.4      29.42       75.4        463       2214       1646       2.43       0.00       0.00      0.000
11:28am            79          0          0         45         74       74.5       75.5      29.42       75.5        463       2215       1652       2.48       0.00       0.00      0.000
11:29am            81          0          0         46         74       74.5       75.6      29.42       75.6        464       2216       1659       2.54       0.00       0.00      0.000
11:30am            81          0          0         45         75       74.5       75.6      29.42       75.6        463       2119       1658       2.50       0.00       0.00      0.000
11:31am            81          0          0         45         74       74.5       75.6      29.42       75.6        463       2216       1658       2.46       0.00       0.00      0.000
11:32am            81          0          0         45         72       74.5       75.4      29.42       75.4        464       2412       1647       2.22       0.00       0.00      0.000
11:33am            81          0          0         45         73       74.5       75.4      29.42       75.4        464       2312       1647       2.19       0.00       0.00      0.000
11:34am             4          0          0         45         74       74.5       75.4      29.42       75.4        464       2214       1647       2.15       0.00       0.00      0.000
11:35am           300          0          0         45         74       74.5       75.5      29.42       75.5        464       2215       1654       2.21       0.00       0.00      0.000
11:36am           354          0          0         46         76       74.5       75.6      29.42       75.6        464       2023       1660       2.27       0.00       0.00      0.000
11:37am            14          0          0         45         73       74.5       75.6      29.42       75.6        464       2314       1659       2.24       0.00       0.00      0.000
11:38am            14          0          0         45         72       74.5       75.6      29.42       75.6        464       2414       1659       2.20       0.00       0.00      0.000
11:39am            11          0          0         45         73       74.5       75.6      29.42       75.6        464       2314       1659       2.16       0.00       0.00      0.000
11:40am            11          0          0         45         73       74.5       75.6      29.42       75.6        463       2314       1658       2.13       0.00       0.00      0.000
11:41am           310          0          0         45         72       74.5       75.6      29.42       75.6        463       2414       1658       2.09       0.00       0.00      0.000
11:42am           146          0          0         45         73       74.5       75.5      29.42       75.5        464       2313       1653       1.96       0.00       0.00      0.000
11:43am            34          0          0         45         73       74.5       75.5      29.42       75.5        464       2313       1653       1.93       0.00       0.00      0.000
11:44am            34          0          0         45         74       74.5       75.5      29.42       75.5        464       2215       1653       1.90       0.00       0.00      0.000
11:45am            81          0          0         45         74       74.5       75.5      29.42       75.5        464       2215       1653       1.87       0.00       0.00      0.000
11:46am           316          0          0         45         74       74.5       75.7      29.42       75.7        463       2217       1664       2.03       0.00       0.00      0.000
11:47am           353          0          0         45         73       74.5       75.7      29.42       75.7        463       2315       1664       2.00       0.00       0.00      0.000
11:48am           353          0          0         45         73       74.5       75.8      29.42       75.8        462       2316       1670       2.07       0.00       0.00      0.000
11:49am           139          0          0         45         73       74.5       76.0      29.42       76.0        462       2318       1682       2.23       0.00       0.00      0.000
11:50am            82          0          0         45         74       74.3       76.0      29.42       76.0        462       2220       1682       2.19       0.00       0.00      0.000
11:51am            82          0          0         45         72       74.3       76.0      29.42       76.0        462       2418       1682       2.16       0.00       0.00      0.000
11:52am            81          0          0         45         73       74.3       76.0      29.43       76.0        461       2318       1681       2.12       0.00       0.00      0.000
11:53am            81          0          0         45         73       74.3       76.0      29.43       76.0        461       2318       1681       2.09       0.00       0.00      0.000
11:54am            81          0          0         45         72       74.3       75.9      29.43       75.9        461       2417       1675       1.95       0.00       0.00      0.000
11:55am            81          0          0         45         73       74.3       75.9      29.43       75.9        461       2317       1675       1.92       0.00       0.00      0.000
11:56am            81          0          0         45         72       74.3       75.9      29.43       75.9        461       2417       1675       1.89       0.00       0.00      0.000
11:57am            81          0          0         45         72       74.2       75.7      29.43       75.7        461       2415       1662       1.66       0.00       0.00      0.000
11:58am            82          0          0         45         73       74.2       75.6      29.43       75.6        461       2314       1656       1.53       0.00       0.00      0.000
11:59am            80          0          0         45         73       74.2       75.6      29.42       75.6        462       2314       1657       1.51       0.00       0.00      0.000
12:00pm            79          0          0         45         74       74.2       75.5      29.42       75.5        462       2215       1651       1.38       0.00       0.00      0.000
12:01pm           331          0          0         45         74       74.2       75.6      29.42       75.6        462       2216       1657       1.46       0.00       0.00      0.000
12:02pm             5          0          0         45         74       74.2       75.6      29.42       75.6        462       2216       1657       1.43       0.00       0.00      0.000
12:03pm            46          0          0         45         74       74.2       75.7      29.42       75.7        462       2217       1663       1.51       0.00       0.00      0.000
12:04pm            77          0          0         45         73       74.2       75.8      29.42       75.8        463       2316       1671       1.58       0.00       0.00      0.000
12:05pm            81          0          0         45         72       74.2       75.9      29.42       75.9        462       2417       1676       1.66       0.00       0.00      0.000
12:06pm            83          0          0         45         72       74.2       75.8      29.42       75.8        462       2416       1670       1.53       0.00       0.00      0.000
12:07pm            83          0          0         45         72       74.2       75.8      29.42       75.8        463       2416       1671       1.50       0.00       0.00      0.000
12:08pm            82          0          0         45         72       74.2       75.9      29.42       75.9        462       2417       1676       1.58       0.00       0.00      0.000
12:09pm            81          0          0         45         72       74.2       75.8      29.42       75.8        462       2416       1670       1.45       0.00       0.00      0.000
12:10pm            81          0          0         45         73       74.2       75.9      29.42       75.9        463       2317       1677       1.53       0.00       0.00      0.000
12:11pm            81          0          0         45         74       74.2       76.0      29.42       76.0        463       2220       1683       1.60       0.00       0.00      0.000
12:12pm            81          0          0         45         74       74.2       76.1      29.42       76.1        463       2220       1690       1.67       0.00       0.00      0.000
12:13pm            81          0          0         45         74       74.2       76.2      29.42       76.2        463       2221       1696       1.74       0.00       0.00      0.000
12:14pm            83          0          0         45         73       74.2       76.4      29.42       76.4        463       2322       1709       1.91       0.00       0.00      0.000
12:15pm            80          0          0         45         73       74.2       76.4      29.42       76.4        462       2322       1707       1.88       0.00       0.00      0.000
12:16pm            80          0          0         45         73       74.2       76.5      29.42       76.5        462       2323       1714       1.95       0.00       0.00      0.000
12:17pm            80          0          0         45         73       74.2       76.5      29.42       76.5        462       2323       1714       1.92       0.00       0.00      0.000
12:18pm            81          0          0         45         73       74.2       76.5      29.42       76.5        462       2323       1714       1.89       0.00       0.00      0.000
12:19pm            81          0          0         45         72       74.2       76.5      29.42       76.5        463       2423       1715       1.86       0.00       0.00      0.000
12:20pm            35          0          0         45         73       74.2       76.5      29.42       76.5        463       2323       1715       1.83       0.00       0.00      0.000
12:21pm            77          0          0         45         71       74.2       76.6      29.42       76.6        464       2525       1722       1.89       0.00       0.00      0.000
12:22pm            77          0          0         45         73       74.2       76.6      29.42       76.6        464       2324       1722       1.86       0.00       0.00      0.000
12:23pm            81          0          0         45         72       74.2       76.7      29.42       76.7        464       2425       1729       1.93       0.00       0.00      0.000
12:24pm            81          0          0         45         71       74.2       76.7      29.42       76.7        464       2526       1729       1.90       0.00       0.00      0.000
12:25pm            81          0          0         45         71       74.2       76.8      29.42       76.8        464       2527       1735       1.97       0.00       0.00      0.000
12:26pm            78          0          0         45         71       74.3       76.7      29.42       76.7        464       2526       1729       1.84       0.00       0.00      0.000
12:27pm            81          0          0         45         71       74.3       76.7      29.42       76.7        464       2526       1730       1.80       0.00       0.00      0.000
12:28pm            81          0          0         45         72       74.3       76.7      29.42       76.7        464       2425       1730       1.78       0.00       0.00      0.000
12:29pm            81          0          0         45         72       74.3       76.7      29.42       76.7        464       2425       1730       1.75       0.00       0.00      0.000
12:30pm            81          0          0         45         73       74.3       76.7      29.42       76.7        464       2325       1730       1.72       0.00       0.00      0.000
12:31pm            76          0          0         45         73       74.3       76.8      29.42       76.8        465       2326       1737       1.79       0.00       0.00      0.000
12:32pm            10          0          0         45         73       74.3       76.9      29.42       76.9        464       2327       1741       1.86       0.00       0.00      0.000
12:33pm            10          0          0         45         72       74.3       76.8      29.42       76.8        464       2426       1735       1.73       0.00       0.00      0.000
12:34pm            81          0          0         45         72       74.3       76.7      29.42       76.7        464       2425       1729       1.60       0.00       0.00      0.000
12:35pm            81          0          0         45         72       74.3       76.6      29.42       76.6        464       2424       1722       1.47       0.00       0.00      0.000
12:36pm            81          0          0         45         73       74.3       76.5      29.42       76.5        464       2323       1716       1.35       0.00       0.00      0.000
12:37pm            81          0          0         45         73       74.3       76.4      29.42       76.4        464       2322       1710       1.23       0.00       0.00      0.000
12:38pm            81          0          0         45         74       74.3       76.3      29.42       76.3        464       2222       1703       1.11       0.00       0.00      0.000
12:39pm            83          0          0         45         73       74.3       76.3      29.42       76.3        467       2321       1708       1.09       0.00       0.00      0.000
12:40pm            83          0          0         45         74       74.3       76.3      29.42       76.3        465       2222       1706       1.07       0.00       0.00      0.000
12:41pm            83          0          0         45         74       74.3       76.3      29.42       76.3        465       2222       1706       1.06       0.00       0.00      0.000
12:42pm            83          0          0         45         76       74.2       76.4      29.42       76.4        466       2030       1713       1.14       0.00       0.00      0.000
12:43pm            82          0          0         45         73       74.2       76.4      29.42       76.4        466       2322       1713       1.12       0.00       0.00      0.000
12:44pm            85          0          0         45         73       74.2       76.4      29.42       76.4        465       2322       1712       1.10       0.00       0.00      0.000
12:45pm            75          0          0         45         72       74.2       76.4      29.42       76.4        466       2422       1713       1.08       0.00       0.00      0.000
12:46pm            81          0          0         45         72       74.2       76.4      29.42       76.4        466       2422       1713       1.06       0.00       0.00      0.000
12:47pm            95          0          0         45         71       74.2       76.3      29.42       76.3        467       2521       1708       0.95       0.00       0.00      0.000
12:48pm            98          0          0         45         70       74.2       76.2      29.42       76.2        466       2623       1701       0.83       0.00       0.00      0.000
12:49pm            79          0          0         45         71       74.0       76.1      29.42       76.1        464       2519       1692       0.72       0.00       0.00      0.000
12:50pm            69          0          0         44         72       74.0       76.1      29.42       76.1        465       2419       1693       0.71       0.00       0.00      0.000
12:51pm            69          0          0         44         70       74.0       76.2      29.42       76.2        465       2623       1699       0.80       0.00       0.00      0.000
12:52pm            79          0          0         45         70       74.0       76.4      29.42       76.4        465       2625       1712       0.98       0.00       0.00      0.000
12:53pm           329          0          0         45         70       74.0       76.5      29.42       76.5        466       2626       1719       1.06       0.00       0.00      0.000
12:54pm           352          0          0         45         70       74.0       76.7      29.42       76.7        465       2628       1731       1.25       0.00       0.00      0.000
12:55pm            87          0          0         45         70       74.0       76.8      29.42       76.8        466       2629       1738       1.32       0.00       0.00      0.000
12:56pm            87          1          3         45         69       74.0       77.0      29.42       77.0        464       2735       1749       1.50       0.00       0.00      0.000
12:57pm            87          1          3         45         69       74.0       77.1      29.42       77.1        465       2736       1756       1.57       0.00       0.00      0.000
12:58pm            87          1          3         45         69       74.0       77.2      29.42       77.2        465       2737       1762       1.65       0.00       0.00      0.000
12:59pm            88          0          3         45         69       74.0       77.4      29.42       77.4        464       2740       1774       1.82       0.00       0.00      0.000
1:00pm            227          0          3         44         68       74.0       77.5      29.42       77.5        466       2846       1782       1.89       0.00       0.00      0.000
1:01pm            206          0          0         45         68       74.0       77.5      29.42       77.5        466       2846       1782       1.85       0.00       0.00      0.000
1:02pm             65          3          9         45         69       74.0       77.6      29.42       77.6        465       2742       1787       1.92       0.00       0.00      0.000
1:03pm             77          4          9         45         70       74.0       77.6      29.42       77.6        466       2638       1789       1.89       0.00       0.00      0.000
1:04pm             81          7          9         45         70       74.0       77.7      29.42       77.7        465       2639       1794       1.96       0.00       0.00      0.000
1:05pm             80          3          9         45         69       74.0       77.7      29.42       77.7        465       2743       1794       1.93       0.00       0.00      0.000
1:06pm             66          3          4         45         69       74.0       77.8      29.42       77.8        465       2744       1800       2.00       0.00       0.00      0.000
1:07pm             79          5          5         45         70       74.0       77.8      29.42       77.8        464       2640       1799       1.96       0.00       0.00      0.000
1:08pm             87          1          6         45         69       74.0       77.8      29.42       77.8        466       2744       1801       1.93       0.00       0.00      0.000
1:09pm            100          3          6         45         69       74.0       77.7      29.42       77.7        465       2743       1794       1.80       0.00       0.00      0.000
1:10pm             80          1          6         45         70       74.0       77.6      29.42       77.6        464       2638       1786       1.67       0.00       0.00      0.000
1:11pm             79          0          1         45         70       74.0       77.5      29.42       77.5        464       2637       1779       1.55       0.00       0.00      0.000
1:12pm             93         10         10         45         70       74.0       77.5      29.42       77.5        464       2637       1779       1.52       0.00       0.00      0.000
1:13pm             83          3         10         45         69       74.0       77.3      29.42       77.3        464       2738       1766       1.30       0.00       0.00      0.000
1:14pm             83          0         10         45         71       74.2       77.2      29.42       77.2        463       2531       1759       1.18       0.00       0.00      0.000
1:15pm             73          5         10         45         70       74.2       77.0      29.42       77.0        463       2631       1746       0.96       0.00       0.00      0.000
1:16pm             69          0          5         44         71       74.2       77.0      29.42       77.0        464       2529       1747       0.94       0.00       0.00      0.000
1:17pm             69          0          5         45         71       74.2       76.9      29.42       76.9        464       2528       1741       0.83       0.00       0.00      0.000
1:18pm             68          0          5         45         71       74.2       76.9      29.42       76.9        464       2528       1741       0.81       0.00       0.00      0.000
1:19pm             19          0          5         45         71       74.2       76.8      29.42       76.8        464       2527       1736       0.70       0.00       0.00      0.000
1:20pm             19          1          5         45         72       74.2       76.7      29.42       76.7        465       2425       1731       0.59       0.00       0.00      0.000
1:21pm             19          1          2         45         72       74.2       76.7      29.42       76.7        466       2425       1732       0.58       0.00       0.00      0.000
1:22pm             46          2          3         45         73       74.2       76.7      29.42       76.7        466       2325       1732       0.57       0.00       0.00      0.000
1:23pm             49          0          3         45         73       74.2       76.6      29.42       76.6        466       2324       1726       0.46       0.00       0.00      0.000
1:24pm             50          0          3         45         73       74.2       76.6      29.42       76.6        466       2324       1726       0.46       0.00       0.00      0.000
1:25pm             50          0          3         45         73       74.2       76.6      29.42       76.6        466       2324       1726       0.45       0.00       0.00      0.000
1:26pm             50          1          1         45         74       74.2       76.7      29.42       76.7        468       2226       1734       0.54       0.00       0.00      0.000
1:27pm             71          0          5         45         72       74.0       76.7      29.42       76.7        470       2425       1736       0.53       0.00       0.00      0.000
1:28pm             71          1          5         45         72       74.0       76.8      29.42       76.8        470       2426       1743       0.62       0.00       0.00      0.000
1:29pm             71          0          5         45         73       74.0       76.9      29.41       76.9        471       2327       1750       0.71       0.00       0.00      0.000
1:30pm            341          3          5         44         73       74.0       77.0      29.41       77.0        472       2328       1758       0.80       0.00       0.00      0.000
1:31pm             43          1          6         45         73       74.0       77.1      29.41       77.1        472       2328       1764       0.88       0.00       0.00      0.000
1:32pm            191          0          6         45         70       74.0       77.1      29.41       77.1        472       2632       1764       0.87       0.00       0.00      0.000
1:33pm             95          6          7         45         71       74.0       77.2      29.41       77.2        472       2531       1770       0.95       0.00       0.00      0.000
1:34pm             96          2          7         45         69       74.0       77.3      29.41       77.3        473       2738       1778       1.04       0.00       0.00      0.000
1:35pm             95          5          7         45         69       74.0       77.4      29.41       77.4        474       2740       1785       1.12       0.00       0.00      0.000
1:36pm             96          1          5         45         68       74.0       77.4      29.41       77.4        474       2845       1785       1.10       0.00       0.00      0.000
1:37pm             91          4          7         45         68       74.0       77.5      29.41       77.5        473       2846       1790       1.18       0.00       0.00      0.000
1:38pm             93          1          7         45         69       74.0       77.5      29.41       77.5        474       2741       1791       1.16       0.00       0.00      0.000
1:39pm             94          2          7         45         68       74.0       77.6      29.41       77.6        474       2847       1798       1.24       0.00       0.00      0.000
1:40pm             94          2          7         45         69       74.0       77.7      29.41       77.7        475       2743       1805       1.32       0.00       0.00      0.000
1:41pm             93          3          6         45         68       74.0       77.8      29.41       77.8        475       2849       1811       1.40       0.00       0.00      0.000
1:42pm             93          0          6         45         68       74.0       77.9      29.41       77.9        474       2851       1816       1.47       0.00       0.00      0.000
1:43pm             94          0          6         45         69       74.0       78.1      29.41       78.1        474       2747       1829       1.65       0.00       0.00      0.000
1:44pm             79          0          8         45         68       74.0       78.2      29.41       78.2        474       2854       1835       1.72       0.00       0.00      0.000
1:45pm            329          0          8         45         69       74.0       78.2      29.41       78.2        474       2749       1835       1.69       0.00       0.00      0.000
1:46pm            329          0          0         45         69       74.0       78.2      29.41       78.2        474       2749       1835       1.66       0.00       0.00      0.000
1:47pm            329          0          0         45         69       74.0       78.2      29.41       78.2        474       2749       1835       1.64       0.00       0.00      0.000
1:48pm            329          0          0         45         69       74.0       78.0      29.41       78.0        474       2746       1823       1.41       0.00       0.00      0.000
1:49pm            329          0          0         45         70       74.0       77.9      29.41       77.9        474       2641       1816       1.29       0.00       0.00      0.000
1:50pm            329          0          0         45         70       74.0       77.7      29.41       77.7        474       2639       1804       1.07       0.00       0.00      0.000
1:51pm            329          0          3         45         72       74.0       77.6      29.41       77.6        474       2434       1798       0.95       0.00       0.00      0.000
1:52pm            329          0          3         45         71       74.0       77.5      29.41       77.5        475       2534       1792       0.84       0.00       0.00      0.000
1:53pm            329          0          3         45         71       74.2       77.4      29.41       77.4        475       2533       1786       0.73       0.00       0.00      0.000
1:54pm            329          2          3         45         72       74.2       77.5      29.41       77.5        475       2433       1792       0.81       0.00       0.00      0.000
1:55pm             60          5          5         45         69       74.2       77.5      29.41       77.5        475       2741       1792       0.80       0.00       0.00      0.000
1:56pm             90          6          6         45         68       74.2       77.5      29.41       77.5        476       2846       1794       0.79       0.00       0.00      0.000
1:57pm             79          5          8         45         68       74.2       77.5      29.41       77.5        476       2846       1794       0.77       0.00       0.00      0.000
1:58pm             81          2          8         46         69       74.2       77.4      29.41       77.4        476       2740       1787       0.66       0.00       0.00      0.000
1:59pm             81          2          8         45         71       74.2       77.5      29.41       77.5        476       2534       1794       0.75       0.00       0.00      0.000
2:00pm            295          3          8         45         71       74.2       77.6      29.41       77.6        476       2535       1800       0.84       0.00       0.00      0.000
2:01pm            341          2          6         45         70       74.2       77.7      29.41       77.7        475       2639       1805       0.92       0.00       0.00      0.000
2:02pm            343          3          6         45         70       74.2       77.7      29.41       77.7        475       2639       1805       0.91       0.00       0.00      0.000
2:03pm            343          1          6         45         69       74.2       77.7      29.41       77.7        475       2743       1805       0.89       0.00       0.00      0.000
2:04pm             82          2          6         45         70       74.0       77.7      29.41       77.7        475       2639       1805       0.88       0.00       0.00      0.000
2:05pm             82          0          6         45         70       74.0       77.7      29.41       77.7        475       2639       1805       0.87       0.00       0.00      0.000
2:06pm             82          1          2         45         70       74.0       77.7      29.41       77.7        474       2639       1804       0.85       0.00       0.00      0.000
2:07pm             82          0          2         45         70       74.0       77.7      29.41       77.7        474       2639       1804       0.84       0.00       0.00      0.000
2:08pm             82          0          2         45         71       74.0       77.6      29.41       77.6        474       2535       1798       0.72       0.00       0.00      0.000
2:09pm             82          0          2         45         71       74.0       77.7      29.41       77.7        475       2536       1805       0.81       0.00       0.00      0.000
2:10pm             82          0          2         45         72       74.0       77.7      29.41       77.7        475       2435       1805       0.80       0.00       0.00      0.000
2:11pm             82          0          0         45         72       74.0       77.6      29.41       77.6        475       2434       1799       0.69       0.00       0.00      0.000
2:12pm             82          0          0         45         72       74.0       77.5      29.41       77.5        475       2433       1792       0.58       0.00       0.00      0.000
2:13pm             82          0          0         45         71       74.0       77.4      29.41       77.4        475       2533       1786       0.47       0.00       0.00      0.000
2:14pm             82          0          0         45         71       74.0       77.3      29.41       77.3        475       2532       1780       0.36       0.00       0.00      0.000
2:15pm             82          0          2         45         71       74.0       77.2      29.41       77.2        475       2531       1774       0.25       0.00       0.00      0.000
2:16pm             82          1          1         45         73       74.0       77.3      29.41       77.3        475       2330       1780       0.35       0.00       0.00      0.000
2:17pm             82          0          2         46         72       73.8       77.2      29.41       77.2        475       2430       1774       0.25       0.00       0.00      0.000
2:18pm             81          1          3         45         70       73.8       77.1      29.41       77.1        476       2632       1768       0.14       0.00       0.00      0.000
2:19pm             81          3          4         45         70       73.8       77.1      29.41       77.1        476       2632       1768       0.14       0.00       0.00      0.000
2:20pm             81          0          4         45         70       73.8       77.1      29.41       77.1        476       2632       1768       0.14       0.00       0.00      0.000
2:21pm             81          2          4         45         70       73.8       77.1      29.41       77.1        475       2632       1767       0.14       0.00       0.00      0.000
2:22pm             82          2          4         45         70       73.8       77.0      29.41       77.0        475       2631       1761       0.03       0.00       0.00      0.000
2:23pm             82          0          4         45         70       73.8       77.0      29.41       77.0        476       2631       1762       0.03       0.00       0.00      0.000
2:24pm             82          0          4         45         70       74.0       76.9      29.41       76.9        476       2630       1756      -0.07       0.00       0.00      0.000
2:25pm             82          1          4         45         71       74.0       77.0      29.41       77.0        476       2529       1762       0.03       0.00       0.00      0.000
2:26pm             82          2          2         45         71       74.0       77.1      29.41       77.1        476       2530       1768       0.13       0.00       0.00      0.000
2:27pm             82          2          2         45         71       74.0       77.3      29.41       77.3        476       2532       1781       0.33       0.00       0.00      0.000
2:28pm             82          0          3         45         71       74.0       77.4      29.41       77.4        476       2533       1788       0.42       0.00       0.00      0.000
2:29pm             82          0          3         45         72       74.0       77.5      29.41       77.5        476       2433       1795       0.52       0.00       0.00      0.000
2:30pm             81          3          3         45         70       74.0       77.6      29.41       77.6        476       2638       1800       0.61       0.00       0.00      0.000
2:31pm             81          3          4         45         70       74.0       77.7      29.41       77.7        476       2639       1806       0.69       0.00       0.00      0.000
2:32pm             82          1          4         45         71       74.0       77.8      29.41       77.8        476       2537       1812       0.78       0.00       0.00      0.000
2:33pm             82          0          4         45         71       74.0       78.0      29.41       78.0        476       2539       1825       0.97       0.00       0.00      0.000
2:34pm             82          1          4         45         69       74.0       78.2      29.41       78.2        476       2749       1839       1.15       0.00       0.00      0.000
2:35pm             83          1          4         45         69       74.0       78.2      29.41       78.2        476       2749       1839       1.13       0.00       0.00      0.000
2:36pm             83          2          3         45         70       74.0       78.4      29.41       78.4        477       2646       1852       1.31       0.00       0.00      0.000
2:37pm             83          1          3         45         69       74.0       78.5      29.41       78.5        477       2752       1859       1.38       0.00       0.00      0.000
2:38pm            130          3          5         45         68       74.0       78.7      29.41       78.7        477       2860       1871       1.56       0.00       0.00      0.000
2:39pm             87          1          6         45         67       74.0       78.7      29.41       78.7        477       2967       1871       1.54       0.00       0.00      0.000
2:40pm             39          5          7         45         68       74.0       78.7      29.41       78.7        477       2860       1871       1.51       0.00       0.00      0.000
2:41pm             24          9         10         45         67       74.0       78.6      29.41       78.6        477       2966       1865       1.38       0.00       0.00      0.000
2:42pm             83          1         10         45         67       74.0       78.4      29.41       78.4        478       2964       1853       1.16       0.00       0.00      0.000
2:43pm             83          2         10         45         67       74.0       78.2      29.41       78.2        477       2961       1840       0.95       0.00       0.00      0.000
2:44pm             83          2         10         45         68       74.0       78.1      29.41       78.1        478       2853       1835       0.83       0.00       0.00      0.000
2:45pm             20          0         10         45         67       74.0       78.0      29.41       78.0        479       2959       1829       0.72       0.00       0.00      0.000
2:46pm             21          0          2         45         69       74.0       77.9      29.41       77.9        479       2745       1823       0.61       0.00       0.00      0.000
2:47pm             27          0          2         45         68       74.0       77.8      29.41       77.8        479       2849       1817       0.50       0.00       0.00      0.000
2:48pm             81          0          2         45         68       74.0       77.7      29.41       77.7        478       2848       1809       0.39       0.00       0.00      0.000
2:49pm             46          0          2         45         69       74.0       77.6      29.41       77.6        479       2742       1804       0.29       0.00       0.00      0.000
2:50pm             79          0          2         45         68       74.0       77.5      29.41       77.5        478       2846       1797       0.18       0.00       0.00      0.000
2:51pm             79          0          0         45         68       74.0       77.4      29.41       77.4        478       2845       1791       0.08       0.00       0.00      0.000
2:52pm            347          0          0         45         69       73.8       77.3      29.41       77.3        478       2738       1784      -0.02       0.00       0.00      0.000
2:53pm             46          0          0         45         69       73.8       77.2      29.41       77.2        478       2737       1778      -0.12       0.00       0.00      0.000
2:54pm             46          0          0         45         69       73.8       77.1      29.41       77.1        477       2736       1771      -0.22       0.00       0.00      0.000
2:55pm             46          0          0         45         70       73.8       77.0      29.41       77.0        476       2631       1763      -0.31       0.00       0.00      0.000
2:56pm             80          0          0         45         69       73.8       76.9      29.41       76.9        476       2734       1756      -0.41       0.00       0.00      0.000
2:57pm             80          0          0         45         68       73.8       76.9      29.41       76.9        476       2839       1757      -0.40       0.00       0.00      0.000
2:58pm             80          0          0         45         69       73.8       76.9      29.41       76.9        476       2734       1756      -0.39       0.00       0.00      0.000
2:59pm             80          0          0         45         68       73.8       76.9      29.41       76.9        476       2839       1757      -0.39       0.00       0.00      0.000
3:00pm             80          0          0         45         69       73.8       76.9      29.41       76.9        476       2734       1756      -0.38       0.00       0.00      0.000
3:01pm             80          0          0         45         70       73.8       76.9      29.41       76.9        476       2630       1757      -0.37       0.00       0.00      0.000
3:02pm             80          0          0         45         69       73.8       77.1      29.41       77.1        476       2736       1770      -0.17       0.00       0.00      0.000
3:03pm             80          0          0         45         70       73.8       77.2      29.41       77.2        476       2633       1776      -0.07       0.00       0.00      0.000
3:04pm             79          0          0         45         70       73.8       77.4      29.41       77.4        476       2636       1788       0.13       0.00       0.00      0.000
3:05pm             79          0          0         45         67       73.8       77.4      29.41       77.4        477       2951       1790       0.13       0.00       0.00      0.000
3:06pm             79          0          0         45         68       73.8       77.5      29.41       77.5        478       2846       1797       0.23       0.00       0.00      0.000
3:07pm             79          0          0         45         67       73.8       77.5      29.41       77.5        478       2953       1797       0.22       0.00       0.00      0.000
3:08pm             79          0          0         45         67       73.8       77.6      29.41       77.6        479       2954       1804       0.32       0.00       0.00      0.000
3:09pm             79          0          0         45         68       73.8       77.7      29.41       77.7        477       2848       1808       0.41       0.00       0.00      0.000
3:10pm             79          0          0         45         69       73.8       77.9      29.41       77.9        478       2745       1822       0.60       0.00       0.00      0.000
3:11pm             80          0          0         45         69       73.8       78.0      29.41       78.0        478       2746       1828       0.69       0.00       0.00      0.000
3:12pm            339          0          0         45         71       73.8       78.1      29.41       78.1        478       2540       1835       0.78       0.00       0.00      0.000
3:13pm            275          0          0         45         68       73.8       78.2      29.41       78.2        479       2854       1842       0.87       0.00       0.00      0.000
3:14pm            291          0          0         45         68       74.0       78.2      29.41       78.2        478       2854       1841       0.85       0.00       0.00      0.000
3:15pm            291          0          0         45         68       74.0       78.2      29.40       78.2        480       2854       1843       0.84       0.00       0.00      0.000
3:16pm            291          1          2         45         66       74.0       78.2      29.40       78.2        480       3070       1843       0.82       0.00       0.00      0.000
3:17pm            291          2          3         45         65       74.0       78.2      29.40       78.2        480       3179       1843       0.81       0.00       0.00      0.000
3:18pm            305          2          3         45         65       74.0       78.3      29.40       78.3        481       3181       1851       0.89       0.00       0.00      0.000
3:19pm            314          1          3         45         65       74.0       78.4      29.40       78.4        481       3182       1857       0.98       0.00       0.00      0.000
3:20pm            314          0          3         45         66       74.0       78.5      29.40       78.5        482       3073       1864       1.06       0.00       0.00      0.000
3:21pm            314          0          0         45         65       74.0       78.5      29.40       78.5        482       3183       1864       1.04       0.00       0.00      0.000
3:22pm            352          0          0         45         66       74.0       78.8      29.40       78.8        482       3077       1883       1.32       0.00       0.00      0.000
3:23pm            352          0          0         45         66       74.0       78.9      29.40       78.9        482       3078       1889       1.40       0.00       0.00      0.000
3:24pm            352          0          0         45         66       74.0       79.1      29.40       79.1        482       3081       1902       1.58       0.00       0.00      0.000
3:25pm             86          0          0         45         65       74.0       79.3      29.40       79.3        483       3194       1915       1.75       0.00       0.00      0.000
3:26pm             85          0          0         45         64       74.0       79.4      29.40       79.4        484       3307       1923       1.82       0.00       0.00      0.000
3:27pm             85          0          0         45         63       73.8       79.4      29.40       79.4        484       3420       1923       1.79       0.00       0.00      0.000
3:28pm             85          0          0         45         63       73.8       79.5      29.40       79.5        485       3422       1930       1.86       0.00       0.00      0.000
3:29pm             85          0          0         45         63       73.8       79.5      29.40       79.5        486       3422       1931       1.83       0.00       0.00      0.000
3:30pm             85          0          0         45         63       73.8       79.5      29.40       79.5        486       3422       1931       1.80       0.00       0.00      0.000
3:31pm             85          0          0         45         63       73.8       79.4      29.40       79.4        487       3420       1926       1.67       0.00       0.00      0.000
3:32pm             85          0          0         45         63       73.8       79.5      29.40       79.5        487       3422       1932       1.74       0.00       0.00      0.000
3:33pm             85          0          0         45         63       73.8       79.5      29.40       79.5        486       3422       1931       1.71       0.00       0.00      0.000
3:34pm             85          2          3         45         63       73.8       79.5      29.40       79.5        485       3422       1930       1.68       0.00       0.00      0.000
3:35pm             85          2          3         45         63       73.8       79.5      29.40       79.5        484       3422       1929       1.65       0.00       0.00      0.000
3:36pm             85          0          2         45         62       73.8       79.4      29.40       79.4        483       3535       1922       1.53       0.00       0.00      0.000
3:37pm             85          0          2         45         63       73.6       79.3      29.40       79.3        484       3419       1917       1.40       0.00       0.00      0.000
3:38pm             85          0          2         45         63       73.6       79.3      29.40       79.3        484       3419       1917       1.38       0.00       0.00      0.000
3:39pm             85          0          2         45         64       73.6       79.3      29.40       79.3        485       3306       1918       1.36       0.00       0.00      0.000
3:40pm             85          0          2         45         65       73.6       79.2      29.40       79.2        485       3192       1911       1.24       0.00       0.00      0.000
3:41pm             85          1          1         45         65       73.6       79.1      29.40       79.1        486       3191       1906       1.12       0.00       0.00      0.000
3:42pm             85          1          2         45         65       73.6       79.0      29.40       79.0        487       3190       1901       1.00       0.00       0.00      0.000
3:43pm             85          0          2         45         65       73.6       78.9      29.40       78.9        488       3189       1896       0.88       0.00       0.00      0.000
3:44pm             85          0          2         45         65       73.6       78.9      29.40       78.9        488       3189       1897       0.87       0.00       0.00      0.000
3:45pm             87          2          2         45         66       73.6       78.9      29.40       78.9        488       3078       1897       0.86       0.00       0.00      0.000
3:46pm             87          0          2         45         66       73.6       78.9      29.40       78.9        488       3078       1897       0.84       0.00       0.00      0.000
3:47pm             87          1          2         45         67       73.6       79.0      29.40       79.0        488       2971       1903       0.93       0.00       0.00      0.000
3:48pm             87          2          2         45         65       73.6       78.9      29.40       78.9        488       3189       1897       0.81       0.00       0.00      0.000
3:49pm             87          3          3         45         67       73.6       79.0      29.40       79.0        488       2971       1902       0.90       0.00       0.00      0.000
3:50pm             87          2          4         45         65       73.6       78.9      29.40       78.9        487       3189       1895       0.78       0.00       0.00      0.000
3:51pm             87          1          2         45         65       73.6       78.9      29.40       78.9        487       3189       1895       0.77       0.00       0.00      0.000
3:52pm             87          2          2         45         65       73.6       78.8      29.40       78.8        485       3187       1886       0.66       0.00       0.00      0.000
3:53pm             87          1          4         45         65       73.6       78.7      29.40       78.7        485       3186       1880       0.55       0.00       0.00      0.000
3:54pm             87          3          4         45         65       73.6       78.4      29.40       78.4        485       3182       1861       0.24       0.00       0.00      0.000
3:55pm             87          0          4         45         66       73.6       78.2      29.40       78.2        483       3070       1847       0.04       0.00       0.00      0.000
3:56pm             87          1          2         45         66       73.6       78.1      29.40       78.1        482       3068       1839      -0.06       0.00       0.00      0.000
3:57pm             87          0          2         45         66       73.6       77.9      29.40       77.9        482       3066       1827      -0.25       0.00       0.00      0.000
3:58pm             87          1          2         45         66       73.6       77.7      29.40       77.7        481       3063       1813      -0.45       0.00       0.00      0.000
3:59pm             87          0          2         45         66       73.6       77.6      29.40       77.6        480       3062       1805      -0.54       0.00       0.00      0.000
4:00pm             87          1          2         45         67       73.8       77.4      29.40       77.4        481       2951       1794      -0.73       0.00       0.00      0.000
4:01pm             87          0          1         45         67       73.8       77.4      29.40       77.4        480       2951       1793      -0.72       0.00       0.00      0.000
4:02pm             87          1          2         45         67       73.8       77.3      29.40       77.3        481       2950       1788      -0.80       0.00       0.00      0.000
4:03pm             87          1          2         45         67       73.8       77.1      29.40       77.1        481       2948       1775      -0.99       0.00       0.00      0.000
4:04pm             87          0          2         45         68       73.8       77.1      29.40       77.1        482       2841       1776      -0.97       0.00       0.00      0.000
4:05pm             87          0          2         45         69       73.8       77.0      29.40       77.0        483       2735       1771      -1.06       0.00       0.00      0.000
4:06pm             87          0          1         45         68       73.8       77.0      29.40       77.0        483       2840       1771      -1.04       0.00       0.00      0.000
4:07pm             87          0          1         45         69       73.8       76.9      29.40       76.9        484       2734       1766      -1.12       0.00       0.00      0.000
4:08pm             87          0          1         45         69       73.8       76.9      29.40       76.9        485       2734       1767      -1.10       0.00       0.00      0.000
4:09pm             87          1          2         45         69       73.8       77.0      29.40       77.0        486       2735       1775      -0.98       0.00       0.00      0.000
4:10pm             87          0          2         45         70       73.8       77.1      29.40       77.1        486       2632       1781      -0.87       0.00       0.00      0.000
4:11pm             87          1          1         45         69       73.8       77.2      29.40       77.2        485       2737       1786      -0.75       0.00       0.00      0.000
4:12pm             87          0          2         45         69       73.8       77.2      29.40       77.2        485       2737       1786      -0.74       0.00       0.00      0.000
4:13pm             16          2          7         45         69       73.6       77.3      29.40       77.3        486       2738       1793      -0.63       0.00       0.00      0.000
4:14pm             15          0          7         45         68       73.6       77.3      29.40       77.3        486       2844       1793      -0.62       0.00       0.00      0.000
4:15pm             15          1          7         46         68       73.6       77.4      29.40       77.4        486       2845       1800      -0.51       0.00       0.00      0.000
4:16pm             15          1          2         45         68       73.6       77.4      29.40       77.4        486       2845       1800      -0.50       0.00       0.00      0.000
4:17pm             15          1          2         45         69       73.6       77.5      29.40       77.5        486       2741       1806      -0.40       0.00       0.00      0.000
4:18pm             62          2          2         45         69       73.6       77.6      29.40       77.6        485       2742       1811      -0.29       0.00       0.00      0.000
4:19pm             79          1          4         45         68       73.6       77.7      29.40       77.7        486       2848       1819      -0.19       0.00       0.00      0.000
4:20pm             79          3          4         45         71       73.6       77.8      29.40       77.8        486       2537       1825      -0.08       0.00       0.00      0.000
4:21pm             79          1          3         45         69       73.6       77.9      29.40       77.9        486       2745       1831       0.02       0.00       0.00      0.000
4:22pm             79          0          3         45         70       73.6       77.9      29.40       77.9        485       2641       1830       0.02       0.00       0.00      0.000
4:23pm             79          1          3         45         69       73.5       78.0      29.40       78.0        486       2746       1837       0.11       0.00       0.00      0.000
4:24pm            349          4          4         45         69       73.5       78.0      29.40       78.0        484       2746       1835       0.11       0.00       0.00      0.000
4:25pm            332          3          4         45         68       73.5       78.0      29.40       78.0        484       2852       1835       0.11       0.00       0.00      0.000
4:26pm            347          2          4         45         69       73.5       78.0      29.40       78.0        483       2746       1834       0.11       0.00       0.00      0.000
4:27pm            347          1          4         45         68       73.5       77.9      29.40       77.9        483       2851       1828       0.01       0.00       0.00      0.000
4:28pm            352          2          4         45         68       73.5       77.9      29.40       77.9        484       2851       1829       0.01       0.00       0.00      0.000
4:29pm            352          2          4         45         68       73.5       77.8      29.40       77.8        484       2849       1823      -0.09       0.00       0.00      0.000
4:30pm            352          0          4         45         67       73.5       77.8      29.40       77.8        484       2956       1823      -0.09       0.00       0.00      0.000
4:31pm            352          0          2         45         67       73.5       77.8      29.40       77.8        483       2956       1821      -0.09       0.00       0.00      0.000
4:32pm            352          0          3         45         67       73.5       77.6      29.40       77.6        483       2954       1809      -0.28       0.00       0.00      0.000
4:33pm            352          0          3         45         68       73.6       77.5      29.40       77.5        485       2846       1805      -0.38       0.00       0.00      0.000
4:34pm            352          0          3         45         68       73.6       77.4      29.40       77.4        484       2845       1797      -0.47       0.00       0.00      0.000
4:35pm            352          0          3         45         69       73.6       77.3      29.40       77.3        484       2738       1791      -0.56       0.00       0.00      0.000
4:36pm            360          0          0         45         69       73.6       77.3      29.40       77.3        483       2738       1790      -0.55       0.00       0.00      0.000
4:37pm            358          0          0         45         69       73.6       77.2      29.40       77.2        485       2737       1786      -0.64       0.00       0.00      0.000
4:38pm            358          0          0         45         69       73.6       77.1      29.40       77.1        484       2736       1779      -0.73       0.00       0.00      0.000
4:39pm            358          0          0         45         70       73.6       77.1      29.40       77.1        483       2632       1777      -0.72       0.00       0.00      0.000
4:40pm            358          0          0         45         71       73.6       77.0      29.40       77.0        483       2529       1771      -0.80       0.00       0.00      0.000
4:41pm             26          0          0         45         70       73.6       77.0      29.40       77.0        483       2631       1771      -0.79       0.00       0.00      0.000
4:42pm             36          1          2         45         70       73.6       77.1      29.40       77.1        483       2632       1777      -0.68       0.00       0.00      0.000
4:43pm             48          2          3         45         70       73.6       77.1      29.40       77.1        482       2632       1776      -0.67       0.00       0.00      0.000
4:44pm            341          0          4         45         70       73.6       77.1      29.40       77.1        483       2632       1777      -0.66       0.00       0.00      0.000
4:45pm            349          1          4         45         71       73.6       77.1      29.40       77.1        481       2530       1775      -0.65       0.00       0.00      0.000
4:46pm             69          0          3         45         70       73.6       77.1      29.40       77.1        481       2632       1775      -0.63       0.00       0.00      0.000
4:47pm             83          4          4         45         71       73.6       77.1      29.40       77.1        480       2530       1774      -0.62       0.00       0.00      0.000
4:48pm             85          1          5         45         70       73.6       77.1      29.40       77.1        480       2632       1774      -0.62       0.00       0.00      0.000
4:49pm             85          1          5         45         69       73.6       77.2      29.40       77.2        480       2737       1780      -0.51       0.00       0.00      0.000
4:50pm             74          5          5         45         68       73.6       77.2      29.40       77.2        480       2842       1780      -0.50       0.00       0.00      0.000
4:51pm             50          1          5         45         69       73.6       77.3      29.40       77.3        480       2738       1787      -0.39       0.00       0.00      0.000
4:52pm            310          2          5         44         68       73.5       77.3      29.41       77.3        478       2844       1784      -0.38       0.00       0.00      0.000
4:53pm            343          2          5         45         68       73.5       77.2      29.40       77.2        480       2842       1780      -0.47       0.00       0.00      0.000
4:54pm             99          2          5         45         68       73.5       77.3      29.41       77.3        479       2844       1786      -0.37       0.00       0.00      0.000
4:55pm             99          0          5         44         68       73.5       77.3      29.40       77.3        481       2844       1788      -0.36       0.00       0.00      0.000
4:56pm             99          3          3         45         67       73.5       77.2      29.41       77.2        479       2949       1779      -0.45       0.00       0.00      0.000
4:57pm             11          1          9         45         67       73.5       77.2      29.41       77.2        479       2949       1779      -0.45       0.00       0.00      0.000
4:58pm             11          2          9         44         67       73.5       77.2      29.41       77.2        478       2949       1778      -0.44       0.00       0.00      0.000
4:59pm             50          3          9         45         67       73.5       77.3      29.41       77.3        477       2950       1783      -0.33       0.00       0.00      0.000
5:00pm             60          2          9         45         67       73.5       77.3      29.41       77.3        477       2950       1783      -0.33       0.00       0.00      0.000
5:01pm             62          1          2         45         67       73.5       77.3      29.41       77.3        476       2950       1782      -0.32       0.00       0.00      0.000
5:02pm             62          1          2         45         68       73.5       77.4      29.41       77.4        476       2845       1788      -0.22       0.00       0.00      0.000
5:03pm             62          0          2         45         68       73.5       77.4      29.41       77.4        476       2845       1788      -0.21       0.00       0.00      0.000
5:04pm             62          0          2         45         68       73.5       77.5      29.41       77.5        476       2846       1794      -0.11       0.00       0.00      0.000
5:05pm             89          1          3         45         69       73.5       77.6      29.41       77.6        476       2742       1800      -0.01       0.00       0.00      0.000
5:06pm             89          1          3         45         67       73.5       77.7      29.41       77.7        476       2955       1806       0.09       0.00       0.00      0.000
5:07pm             88          2          4         45         68       73.5       77.7      29.41       77.7        476       2848       1806       0.09       0.00       0.00      0.000
5:08pm             92          2          6         45         67       73.5       77.7      29.41       77.7        476       2955       1806       0.09       0.00       0.00      0.000
5:09pm             94          3          6         45         67       73.5       77.6      29.41       77.6        476       2954       1800      -0.01       0.00       0.00      0.000
5:10pm             93          2          7         45         67       73.5       77.5      29.41       77.5        476       2953       1794      -0.11       0.00       0.00      0.000
5:11pm             93          0          3         45         67       73.5       77.5      29.41       77.5        476       2953       1794      -0.11       0.00       0.00      0.000
5:12pm             49          7          7         45         67       73.5       77.4      29.41       77.4        476       2951       1787      -0.21       0.00       0.00      0.000
5:13pm             61          0          7         45         67       73.5       77.4      29.41       77.4        476       2951       1787      -0.20       0.00       0.00      0.000
5:14pm             61          1          7         45         67       73.5       77.3      29.41       77.3        476       2950       1782      -0.30       0.00       0.00      0.000
5:15pm             66          9          9         45         67       73.5       77.3      29.41       77.3        476       2950       1782      -0.29       0.00       0.00      0.000
5:16pm             73          1          9         45         67       73.5       77.2      29.41       77.2        476       2949       1776      -0.39       0.00       0.00      0.000
5:17pm             73          1          9         45         67       73.5       77.2      29.41       77.2        476       2949       1776      -0.38       0.00       0.00      0.000
5:18pm             29          0          9         45         68       73.5       77.2      29.41       77.2        476       2842       1776      -0.37       0.00       0.00      0.000
5:19pm             29          0          9         45         68       73.5       77.1      29.41       77.1        477       2841       1771      -0.47       0.00       0.00      0.000
5:20pm             77          2          9         45         69       73.5       77.1      29.41       77.1        477       2736       1771      -0.46       0.00       0.00      0.000
5:21pm             79          2          5         45         68       73.5       77.0      29.41       77.0        477       2840       1764      -0.55       0.00       0.00      0.000
5:22pm             41          0          5         45         68       73.6       76.9      29.41       76.9        477       2839       1758      -0.64       0.00       0.00      0.000
5:23pm             79          4          5         45         68       73.6       77.0      29.41       77.0        476       2840       1763      -0.53       0.00       0.00      0.000
5:24pm             93          8          9         45         68       73.6       76.9      29.41       76.9        477       2839       1758      -0.62       0.00       0.00      0.000
5:25pm             85          6          9         45         67       73.6       76.9      29.41       76.9        477       2945       1758      -0.61       0.00       0.00      0.000
5:26pm             77          3          8         45         67       73.6       76.8      29.41       76.8        477       2944       1752      -0.70       0.00       0.00      0.000
5:27pm             76          0          8         45         68       73.6       76.8      29.41       76.8        477       2838       1752      -0.69       0.00       0.00      0.000
5:28pm             76          1          8         45         68       73.6       76.8      29.41       76.8        477       2838       1752      -0.68       0.00       0.00      0.000
5:29pm             40          6          8         45         68       73.6       76.8      29.41       76.8        477       2838       1752      -0.67       0.00       0.00      0.000
5:30pm             78          2          8         45         67       73.6       76.8      29.41       76.8        476       2944       1751      -0.66       0.00       0.00      0.000
5:31pm             76          2          3         45         68       73.6       76.7      29.41       76.7        476       2837       1743      -0.74       0.00       0.00      0.000
5:32pm             77          0          3         45         69       73.6       76.7      29.41       76.7        475       2732       1742      -0.73       0.00       0.00      0.000
5:33pm             37          3          3         45         68       73.6       76.7      29.41       76.7        476       2837       1743      -0.72       0.00       0.00      0.000
5:34pm             92          2          5         45         67       73.6       76.6      29.41       76.6        475       2942       1736      -0.81       0.00       0.00      0.000
5:35pm             91          1          5         45         67       73.6       76.6      29.41       76.6        476       2942       1737      -0.79       0.00       0.00      0.000
5:36pm             91          1          2         45         67       73.6       76.6      29.41       76.6        476       2942       1737      -0.78       0.00       0.00      0.000
5:37pm             91          1          4         45         67       73.5       76.5      29.41       76.5        476       2941       1731      -0.87       0.00       0.00      0.000
5:38pm             91          1          4         45         67       73.5       76.4      29.41       76.4        476       2939       1724      -0.95       0.00       0.00      0.000
5:39pm             91          0          4         45         67       73.5       76.4      29.41       76.4        476       2939       1724      -0.94       0.00       0.00      0.000
5:40pm             91          5          5         44         67       73.5       76.3      29.41       76.3        476       2938       1718      -1.02       0.00       0.00      0.000
5:41pm             77          0          6         45         67       73.5       76.3      29.41       76.3        476       2938       1718      -1.00       0.00       0.00      0.000
5:42pm             64          4          6         45         68       73.5       76.3      29.41       76.3        476       2832       1718      -0.99       0.00       0.00      0.000
5:43pm             64          1          6         44         68       73.5       76.3      29.41       76.3        476       2832       1718      -0.97       0.00       0.00      0.000
5:44pm             64          1          6         45         68       73.5       76.2      29.41       76.2        476       2831       1712      -1.05       0.00       0.00      0.000
5:45pm             87          0          6         45         68       73.5       76.1      29.41       76.1        476       2830       1705      -1.13       0.00       0.00      0.000
5:46pm             87          1          1         44         69       73.5       76.1      29.41       76.1        476       2725       1707      -1.12       0.00       0.00      0.000
5:47pm             87          0          1         45         68       73.5       76.1      29.41       76.1        476       2830       1705      -1.10       0.00       0.00      0.000
5:48pm             87          0          1         45         69       73.5       76.0      29.41       76.0        476       2724       1699      -1.18       0.00       0.00      0.000
5:49pm             87          0          1         45         68       73.5       76.0      29.41       76.0        476       2828       1699      -1.16       0.00       0.00      0.000
5:50pm             87          2          4         45         68       73.5       75.9      29.41       75.9        476       2827       1693      -1.24       0.00       0.00      0.000
5:51pm             87          1          2         44         69       73.5       75.9      29.41       75.9        476       2723       1693      -1.22       0.00       0.00      0.000
5:52pm             87          0          2         45         68       73.5       75.9      29.41       75.9        476       2827       1693      -1.20       0.00       0.00      0.000
5:53pm             87          0          2         44         69       73.5       75.9      29.41       75.9        476       2723       1693      -1.18       0.00       0.00      0.000
5:54pm             87          0          2         45         69       73.5       75.9      29.41       75.9        476       2723       1693      -1.16       0.00       0.00      0.000
5:55pm             87          0          2         44         69       73.5       75.9      29.41       75.9        476       2723       1693      -1.14       0.00       0.00      0.000
5:56pm             87          0          2         45         70       73.5       75.9      29.41       75.9        476       2619       1693      -1.12       0.00       0.00      0.000
5:57pm             87          1          3         45         69       73.5       75.8      29.41       75.8        476       2722       1687      -1.20       0.00       0.00      0.000
5:58pm             87          3          3         45         69       73.5       75.8      29.41       75.8        476       2722       1687      -1.18       0.00       0.00      0.000
5:59pm             87          0          3         45         69       73.5       75.7      29.41       75.7        476       2720       1680      -1.26       0.00       0.00      0.000
6:00pm             87          0          3         45         70       73.5       75.7      29.41       75.7        475       2617       1679      -1.24       0.00       0.00      0.000
6:01pm             87          0          0         45         70       73.5       75.7      29.41       75.7        475       2617       1679      -1.22       0.00       0.00      0.000

Data provided from:  Mark Hofmann's Bel Air, MD Weather Station